GFSNGP_850_dewp_000.txt.gz
Dewpoint
1 0 -0 2 3 4 4 2 2 0 1 -1 -2 -3 -3 -1 -1 1 2 1 -0 -0 0 -0 -1 -2 -5 -3 -3 -4 -5 -7 -11 -15 -24 -36 -36 -35 -35 -35 -35 -33 -32 -29
-3 -3 -2 -2 -3 -3 -1 2 2 1 0 -3 -3 -2 1 1 1 2 1 -0 -1 -0 -1 -2 -4 -3 -1 -2 -3 -5 -9 -15 -28 -39 -35 -33 -34 -35 -34 -33 -32 -31 -31 -29
-3 -0 0 2 0 -1 -3 -4 -4 -3 -4 -3 -2 0 1 2 1 1 -0 -1 -1 -1 -2 -4 -2 -1 -2 -3 -5 -11 -21 -37 -35 -32 -33 -33 -31 -29 -28 -27 -26 -25 -25 -25
1 1 5 1 -1 -1 -1 -1 -2 -2 -1 -0 1 1 0 1 2 1 -0 -0 -0 -1 -3 -1 -0 -1 -3 -6 -13 -28 -36 -32 -31 -31 -30 -28 -27 -26 -25 -24 -24 -23 -23 -23
4 4 3 2 1 1 1 2 1 1 1 1 0 -0 -0 -0 1 1 -0 0 -1 -1 -1 0 -1 -2 -6 -14 -29 -34 -31 -31 -30 -28 -26 -25 -25 -25 -24 -23 -22 -21 -20 -20
2 4 5 1 -0 -1 -1 2 1 2 1 2 1 3 1 0 1 0 1 0 -0 -1 0 -0 -2 -6 -14 -28 -29 -29 -30 -29 -27 -25 -24 -24 -23 -23 -22 -22 -21 -20 -20 -19
4 4 3 0 -0 -0 3 0 1 1 0 1 2 2 1 1 1 2 1 1 -0 0 1 1 -3 -13 -27 -28 -29 -29 -27 -26 -24 -23 -22 -22 -22 -22 -22 -21 -20 -19 -18 -18
3 4 4 0 1 3 1 1 -0 -0 -0 -1 -1 -0 1 1 1 1 0 -0 0 1 1 0 -12 -25 -27 -29 -27 -25 -25 -24 -24 -23 -22 -22 -21 -21 -21 -20 -18 -16 -13 -11
3 2 0 0 0 0 0 0 1 0 0 -0 -1 -0 -0 1 1 0 -0 0 1 1 -0 -4 -22 -25 -27 -26 -25 -24 -24 -24 -23 -23 -22 -22 -20 -20 -19 -18 -15 -13 -10 -9
2 1 1 0 0 0 1 1 1 1 0 0 -0 -1 -0 0 0 0 1 0 -1 -1 -8 -25 -24 -26 -26 -25 -24 -24 -24 -24 -23 -22 -20 -19 -19 -19 -17 -15 -12 -10 -8 -8
3 1 0 1 1 1 1 1 1 1 0 1 0 -1 -1 -0 0 1 -0 -1 -4 -12 -26 -24 -25 -26 -25 -24 -23 -23 -23 -23 -22 -20 -19 -18 -19 -18 -15 -13 -9 -8 -9 -8
3 1 1 1 -0 -0 1 1 1 1 1 1 0 -0 -1 -0 0 -1 -2 -6 -12 -25 -22 -24 -25 -25 -24 -23 -22 -22 -23 -22 -20 -18 -17 -17 -17 -17 -17 -13 -9 -9 -9 -9
1 1 0 -0 0 0 0 0 -0 0 0 -0 -0 -0 -0 -1 -1 -2 -6 -20 -23 -22 -24 -24 -24 -24 -23 -23 -23 -22 -21 -20 -19 -17 -16 -16 -15 -12 -10 -12 -10 -10 -10 -10
0 -0 0 0 -0 -0 0 0 0 0 1 1 0 -1 -1 -2 -4 -13 -23 -21 -21 -23 -24 -24 -23 -23 -23 -23 -22 -21 -20 -18 -16 -16 -16 -14 -11 -10 -10 -10 -10 -11 -13 -10
0 0 0 0 0 -0 -2 -2 0 0 -0 -0 -1 -1 -2 -8 -19 -22 -20 -21 -22 -23 -22 -22 -22 -22 -22 -21 -21 -19 -17 -16 -15 -13 -12 -11 -11 -11 -10 -10 -10 -11 -11 -11
0 0 0 -1 -5 -7 -6 -5 -2 -1 -1 -1 -2 -4 -12 -22 -21 -20 -21 -21 -21 -21 -21 -21 -21 -21 -21 -20 -20 -18 -17 -15 -12 -12 -12 -12 -12 -11 -11 -11 -11 -11 -10 -10
0 -0 -3 -9 -9 -7 -4 -2 -2 -2 -2 -2 -5 -14 -21 -20 -20 -20 -20 -20 -21 -21 -21 -20 -20 -20 -20 -20 -19 -17 -16 -15 -12 -13 -12 -12 -11 -11 -11 -10 -10 -11 -12 -12
-7 -11 -10 -9 -7 -4 -3 -2 -2 -2 -2 -5 -17 -21 -20 -20 -19 -19 -19 -20 -21 -20 -19 -19 -19 -19 -20 -19 -18 -16 -13 -12 -12 -12 -12 -11 -11 -10 -11 -11 -12 -11 -11 -12
-10 -9 -9 -9 -6 -4 -3 -2 -2 -2 -7 -19 -20 -20 -20 -19 -18 -19 -19 -20 -19 -18 -18 -19 -19 -19 -20 -19 -16 -13 -13 -12 -12 -11 -11 -11 -11 -11 -11 -12 -11 -11 -11 -12
-7 -7 -9 -9 -7 -4 -2 -3 -3 -12 -20 -20 -20 -19 -19 -19 -18 -19 -19 -17 -16 -18 -18 -19 -19 -20 -19 -17 -15 -11 -11 -11 -11 -11 -11 -11 -11 -12 -12 -12 -11 -12 -12 -12
-6 -7 -10 -9 -7 -5 -5 -9 -18 -21 -19 -19 -18 -18 -17 -17 -17 -18 -16 -16 -18 -18 -18 -20 -21 -21 -18 -16 -11 -11 -11 -11 -11 -11 -11 -12 -12 -12 -12 -12 -13 -13 -12 -12
-5 -5 -8 -9 -7 -6 -7 -14 -22 -21 -20 -18 -17 -16 -15 -16 -17 -16 -16 -18 -18 -18 -20 -20 -20 -19 -15 -11 -11 -12 -12 -12 -13 -13 -13 -13 -12 -13 -13 -13 -13 -13 -13 -13
-5 -4 -6 -8 -7 -7 -8 -15 -19 -20 -19 -17 -15 -14 -14 -16 -15 -16 -17 -17 -19 -20 -20 -20 -20 -19 -13 -11 -12 -13 -14 -14 -14 -14 -13 -13 -13 -13 -13 -13 -13 -13 -13 -13
-5 -4 -7 -8 -6 -7 -8 -10 -14 -16 -16 -15 -13 -13 -15 -15 -16 -17 -17 -19 -21 -20 -20 -20 -20 -17 -12 -14 -15 -15 -14 -14 -13 -13 -13 -13 -13 -13 -13 -13 -13 -14 -14 -14
-3 -5 -9 -9 -6 -5 -7 -9 -11 -13 -13 -12 -13 -14 -15 -17 -17 -18 -20 -20 -20 -20 -20 -20 -17 -16 -16 -15 -15 -14 -14 -13 -13 -13 -13 -13 -14 -14 -14 -14 -14 -14 -13 -13
-5 -9 -9 -7 -5 -6 -7 -7 -10 -11 -11 -13 -14 -16 -17 -17 -19 -20 -20 -20 -20 -20 -19 -17 -16 -16 -15 -15 -14 -14 -13 -13 -13 -13 -14 -14 -14 -14 -14 -14 -14 -14 -14 -14
-7 -10 -9 -7 -7 -7 -7 -9 -10 -12 -14 -16 -17 -17 -18 -20 -20 -19 -19 -20 -20 -19 -17 -16 -16 -15 -15 -14 -14 -13 -13 -13 -13 -14 -14 -14 -14 -14 -14 -14 -14 -14 -13 -14

GFSNGP_850_dewp_006.txt.gz
Dewpoint
-0 2 3 3 3 1 1 1 2 1 0 -2 -2 -2 -3 -2 -1 -1 1 1 2 2 2 2 1 -2 -4 -1 1 1 -3 -9 -17 -22 -31 -32 -32 -31 -31 -30 -30 -29 -28 -27
-2 -2 -3 1 2 1 1 0 -1 1 1 -3 -2 -1 1 1 1 0 1 1 1 2 2 1 -1 -4 -0 1 -0 -2 -6 -11 -20 -27 -30 -31 -30 -30 -30 -29 -28 -27 -26 -27
1 -1 -1 -2 -2 3 1 -0 1 2 -1 -3 1 1 0 0 -0 0 1 1 1 1 1 -0 -3 -1 0 0 -2 -4 -5 -13 -24 -31 -31 -30 -29 -29 -28 -27 -26 -25 -26 -27
-2 0 -1 -3 -0 -3 -1 -1 -2 0 0 0 1 0 -1 -1 -0 -0 1 1 1 1 1 -3 -1 0 0 -2 -3 -5 -12 -20 -30 -30 -29 -28 -28 -27 -26 -25 -25 -25 -26 -26
2 1 -0 2 0 1 1 3 1 2 1 0 -0 -0 -0 1 0 -0 0 1 0 1 -1 -2 -0 -1 -1 -2 -7 -14 -22 -29 -30 -28 -27 -27 -27 -25 -24 -24 -24 -25 -25 -25
3 4 4 0 -0 -1 -0 4 1 1 2 2 1 2 1 -0 0 0 0 0 0 -1 -2 -1 -1 0 -2 -5 -9 -22 -29 -29 -28 -27 -27 -26 -24 -23 -23 -23 -23 -24 -25 -24
4 4 3 -0 -0 -1 3 2 2 1 -0 0 1 -0 -0 -0 0 1 1 0 -0 -1 -1 -1 -0 -2 -3 -12 -23 -25 -28 -27 -27 -26 -25 -24 -23 -22 -22 -22 -23 -24 -24 -24
3 4 4 -0 1 2 1 1 -0 -0 -0 -1 -1 -1 -1 0 1 1 1 0 -0 -1 -1 -0 -1 -4 -16 -24 -26 -27 -27 -26 -25 -24 -22 -22 -21 -21 -22 -22 -22 -23 -22 -17
2 3 1 1 0 0 -0 -0 -0 -0 -0 -0 -1 -0 -0 -1 -0 1 1 1 -0 -1 -0 -2 -6 -14 -24 -25 -26 -26 -26 -25 -23 -21 -20 -20 -21 -21 -21 -22 -21 -19 -13 -10
2 2 1 0 0 -0 -0 0 0 0 0 0 -0 0 -0 -1 -1 0 1 0 -1 -1 -2 -7 -14 -23 -24 -25 -26 -25 -24 -22 -21 -19 -19 -20 -20 -21 -21 -19 -15 -12 -10 -9
2 1 1 0 0 0 1 1 1 1 0 0 0 0 0 -0 -1 -0 0 -0 -0 -2 -5 -11 -21 -23 -24 -24 -24 -23 -22 -21 -19 -19 -19 -20 -20 -20 -18 -15 -11 -10 -10 -10
2 1 1 1 0 -0 0 0 0 0 -1 -1 -1 -0 -0 -0 -0 -0 -1 -2 -2 -4 -5 -20 -22 -23 -23 -22 -22 -21 -21 -19 -19 -19 -19 -20 -20 -20 -16 -13 -11 -11 -10 -10
1 1 0 0 -0 0 -0 -0 -1 -3 -6 -5 -3 -1 -0 -0 -0 -1 -2 -3 -3 -7 -22 -21 -22 -22 -22 -21 -21 -20 -18 -18 -19 -19 -20 -19 -19 -15 -13 -14 -14 -14 -11 -10
1 0 0 0 0 -0 -1 -2 -6 -9 -9 -7 -4 -1 -0 -1 -2 -2 -3 -3 -12 -22 -20 -21 -21 -21 -21 -21 -18 -17 -18 -18 -19 -20 -20 -19 -15 -12 -13 -12 -12 -13 -12 -11
0 0 0 0 -1 -1 -4 -9 -9 -8 -8 -8 -7 -3 -1 -2 -1 -3 -4 -16 -21 -20 -20 -21 -21 -21 -20 -16 -16 -17 -18 -19 -20 -20 -18 -14 -13 -13 -13 -11 -11 -11 -11 -11
0 0 -0 -0 -4 -9 -9 -8 -7 -7 -7 -6 -5 -3 -2 -2 -3 -7 -20 -20 -20 -20 -20 -20 -21 -20 -16 -16 -17 -18 -20 -21 -21 -19 -16 -14 -13 -12 -12 -11 -11 -11 -11 -11
0 0 -1 -8 -8 -8 -7 -7 -7 -6 -5 -4 -3 -2 -2 -3 -10 -19 -19 -19 -19 -19 -20 -20 -19 -16 -16 -17 -18 -20 -22 -22 -20 -16 -15 -14 -13 -11 -11 -11 -11 -11 -12 -12
-2 -8 -7 -8 -7 -7 -8 -8 -8 -6 -5 -3 -2 -2 -3 -8 -18 -19 -19 -19 -19 -19 -19 -18 -15 -16 -17 -18 -20 -22 -22 -20 -16 -14 -14 -13 -11 -11 -12 -12 -12 -12 -12 -13
-7 -7 -8 -7 -6 -6 -7 -9 -9 -7 -4 -2 -2 -3 -8 -17 -19 -19 -19 -19 -18 -17 -17 -15 -15 -17 -18 -20 -22 -22 -20 -16 -14 -13 -12 -12 -13 -12 -13 -14 -12 -13 -13 -13
-7 -7 -6 -5 -4 -4 -5 -7 -9 -8 -5 -3 -3 -6 -16 -19 -19 -19 -18 -17 -16 -16 -15 -15 -16 -18 -20 -22 -22 -18 -14 -13 -13 -13 -15 -13 -14 -15 -14 -13 -13 -13 -13 -13
-8 -7 -7 -6 -5 -4 -4 -5 -7 -8 -6 -6 -7 -13 -19 -19 -18 -17 -16 -15 -15 -14 -15 -16 -17 -20 -22 -21 -15 -13 -14 -14 -15 -15 -15 -15 -14 -14 -13 -13 -13 -14 -14 -14
-8 -8 -8 -9 -7 -5 -4 -5 -6 -7 -7 -9 -14 -18 -19 -18 -16 -15 -14 -14 -14 -15 -16 -17 -20 -21 -20 -13 -14 -15 -16 -16 -16 -15 -15 -14 -14 -13 -14 -14 -14 -14 -14 -14
-6 -6 -7 -7 -7 -6 -5 -5 -7 -7 -8 -11 -17 -18 -17 -15 -14 -13 -13 -13 -15 -16 -18 -20 -21 -21 -20 -14 -18 -17 -17 -16 -15 -15 -14 -14 -13 -14 -14 -14 -14 -14 -14 -14
-5 -5 -6 -6 -6 -5 -5 -7 -7 -7 -9 -13 -15 -15 -13 -13 -12 -12 -13 -16 -17 -19 -20 -21 -20 -20 -19 -19 -17 -17 -16 -15 -15 -14 -14 -14 -14 -14 -14 -14 -14 -14 -14 -14
-6 -5 -5 -6 -5 -5 -6 -7 -6 -6 -9 -11 -11 -11 -11 -10 -10 -15 -16 -17 -19 -21 -21 -20 -20 -20 -19 -18 -17 -16 -15 -15 -15 -13 -13 -13 -14 -14 -14 -14 -14 -15 -14 -14
-5 -6 -6 -5 -5 -6 -8 -7 -7 -8 -8 -9 -9 -8 -9 -14 -16 -17 -18 -20 -21 -20 -20 -20 -20 -19 -17 -16 -16 -16 -15 -15 -14 -13 -13 -14 -14 -14 -14 -14 -14 -14 -14 -14
-6 -6 -6 -5 -7 -7 -7 -7 -7 -8 -8 -8 -12 -15 -16 -17 -17 -19 -21 -21 -21 -21 -20 -19 -18 -17 -16 -16 -15 -15 -14 -14 -13 -14 -14 -14 -14 -14 -14 -14 -14 -14 -14 -14

GFSNGP_850_dewp_009.txt.gz
Dewpoint
-0 2 2 2 2 -0 1 1 2 1 0 -1 -2 -1 -1 -2 -2 -0 0 1 2 2 2 2 1 -0 -3 -1 1 0 -0 -3 -6 -12 -21 -30 -30 -29 -29 -29 -27 -24 -22 -21
-1 -0 1 3 2 1 -0 -0 0 -0 0 -3 -2 -2 -0 1 0 0 0 1 1 2 2 2 1 -2 -1 0 1 0 -3 -7 -12 -20 -29 -30 -29 -29 -28 -25 -22 -20 -20 -21
2 -1 -2 1 0 2 1 0 -0 2 -0 -2 1 1 1 1 1 1 1 1 1 2 2 2 -0 -2 -0 0 0 -3 -7 -11 -17 -27 -29 -28 -28 -27 -24 -20 -19 -20 -21 -22
-0 -1 2 -0 -1 0 1 -2 -2 -2 -2 -1 1 0 -1 -1 -1 -0 -0 1 1 2 2 1 -2 -1 -0 -0 -1 -5 -9 -16 -27 -28 -28 -28 -27 -23 -19 -19 -19 -20 -21 -22
2 1 -1 2 0 0 1 1 -1 1 1 0 -0 -0 0 1 0 0 0 0 1 1 1 -1 -2 -1 -0 -1 -4 -7 -16 -24 -28 -28 -27 -26 -21 -19 -18 -19 -19 -20 -21 -22
3 3 2 -1 -0 -1 -0 3 1 1 1 0 0 2 1 -0 -0 -0 -0 0 1 1 -0 -2 -1 -1 -1 -3 -6 -14 -23 -27 -27 -26 -25 -21 -19 -18 -19 -19 -20 -21 -22 -22
4 3 2 -0 -0 -1 3 1 2 1 1 1 0 -0 -0 -1 -1 -1 -0 0 0 -0 -2 -1 -1 -1 -3 -7 -13 -22 -26 -27 -25 -24 -21 -19 -18 -18 -19 -19 -20 -21 -22 -20
3 3 2 -0 0 2 1 1 1 -0 -0 -1 -1 -1 -1 -1 -1 -0 0 0 -0 -1 -1 -1 -1 -3 -8 -15 -20 -25 -26 -25 -23 -21 -19 -18 -18 -18 -19 -20 -21 -21 -20 -17
1 2 1 1 0 0 1 -0 -0 -1 -1 -1 -1 -1 -0 -1 -1 0 1 0 -0 -1 -1 -1 -2 -8 -15 -18 -24 -25 -24 -23 -22 -20 -17 -17 -18 -19 -20 -21 -20 -20 -15 -11
1 2 0 0 0 -0 -0 -0 -0 -1 -0 -0 -0 -0 -0 -0 -1 -0 0 0 -0 -1 -1 -2 -7 -9 -18 -23 -24 -23 -22 -22 -21 -17 -16 -18 -19 -20 -21 -21 -18 -13 -10 -10
2 1 1 0 0 -0 0 0 0 0 0 0 -0 -0 0 0 -1 -1 0 -0 -1 -1 -2 -6 -6 -19 -22 -23 -22 -22 -22 -20 -16 -16 -17 -19 -20 -20 -20 -18 -13 -10 -10 -10
2 1 1 0 0 1 0 0 0 -0 -1 -1 -2 -2 -1 -0 -0 -0 -0 -0 -1 -3 -4 -6 -19 -21 -22 -22 -22 -22 -19 -15 -16 -18 -19 -20 -21 -22 -20 -16 -11 -11 -10 -10
0 1 0 0 0 0 0 -0 -1 -2 -5 -7 -6 -4 -2 -1 -0 -0 -1 -2 -3 -4 -7 -21 -21 -21 -21 -22 -22 -18 -15 -16 -17 -19 -20 -22 -22 -19 -16 -15 -14 -14 -11 -10
1 0 1 0 0 0 -1 -2 -3 -8 -8 -8 -7 -7 -4 -2 -2 -2 -2 -4 -4 -11 -21 -20 -21 -21 -22 -22 -18 -15 -16 -17 -19 -21 -23 -22 -17 -14 -14 -14 -12 -12 -12 -11
0 0 0 0 -0 -1 -2 -6 -9 -7 -7 -7 -7 -7 -3 -2 -3 -3 -4 -5 -15 -20 -20 -20 -21 -21 -21 -18 -15 -16 -17 -19 -21 -23 -21 -17 -15 -15 -14 -12 -11 -11 -12 -12
0 0 0 -1 -1 -5 -9 -8 -7 -7 -7 -7 -6 -4 -3 -2 -2 -3 -6 -18 -20 -20 -20 -21 -20 -20 -17 -15 -16 -17 -18 -21 -22 -21 -17 -15 -16 -15 -13 -11 -12 -12 -12 -12
0 -0 -0 -4 -9 -8 -8 -8 -8 -8 -8 -6 -4 -4 -3 -2 -3 -7 -18 -20 -20 -20 -20 -19 -18 -17 -15 -15 -16 -18 -20 -22 -21 -17 -16 -16 -15 -13 -11 -11 -13 -12 -12 -13
-0 -1 -5 -8 -8 -9 -8 -8 -9 -9 -8 -5 -3 -3 -2 -2 -5 -15 -19 -20 -19 -19 -18 -17 -16 -15 -15 -16 -18 -20 -22 -21 -17 -16 -16 -15 -13 -12 -14 -13 -13 -13 -13 -13
-6 -8 -9 -9 -8 -7 -7 -7 -8 -8 -8 -5 -3 -2 -3 -4 -12 -19 -20 -19 -18 -18 -16 -16 -14 -15 -16 -18 -20 -22 -21 -18 -16 -16 -15 -14 -15 -15 -15 -14 -13 -13 -13 -13
-7 -9 -8 -7 -6 -5 -5 -5 -6 -6 -7 -7 -5 -4 -4 -10 -18 -19 -19 -18 -17 -16 -15 -14 -14 -16 -17 -20 -22 -21 -19 -16 -16 -16 -16 -15 -15 -15 -14 -14 -13 -13 -14 -13
-7 -7 -7 -6 -6 -5 -5 -5 -5 -6 -7 -7 -6 -6 -7 -16 -18 -18 -17 -17 -15 -14 -13 -14 -16 -17 -19 -21 -20 -17 -17 -17 -17 -16 -16 -15 -15 -15 -14 -13 -14 -14 -14 -14
-8 -9 -9 -8 -9 -7 -6 -5 -5 -6 -7 -8 -8 -10 -14 -17 -17 -16 -15 -14 -13 -12 -14 -16 -18 -19 -21 -20 -20 -19 -19 -18 -17 -16 -15 -15 -15 -14 -13 -13 -14 -14 -14 -14
-7 -6 -7 -7 -7 -6 -6 -5 -6 -7 -7 -8 -10 -15 -17 -17 -15 -14 -13 -12 -13 -16 -17 -18 -20 -22 -21 -20 -20 -19 -18 -17 -16 -16 -15 -15 -14 -13 -13 -14 -14 -14 -14 -14
-6 -6 -6 -6 -6 -6 -5 -6 -7 -7 -8 -10 -12 -14 -14 -13 -12 -11 -11 -15 -16 -17 -18 -21 -22 -21 -21 -20 -19 -18 -17 -16 -16 -15 -15 -14 -14 -13 -14 -14 -14 -14 -14 -14
-5 -5 -5 -5 -6 -5 -5 -7 -7 -7 -8 -10 -10 -10 -10 -9 -9 -14 -16 -16 -17 -20 -22 -22 -22 -21 -20 -19 -17 -17 -16 -15 -15 -14 -14 -13 -14 -14 -14 -14 -14 -14 -15 -14
-5 -5 -6 -6 -6 -6 -6 -7 -7 -8 -8 -9 -8 -8 -9 -14 -16 -16 -17 -20 -22 -22 -22 -21 -20 -19 -17 -17 -16 -16 -15 -15 -14 -14 -14 -13 -14 -14 -14 -14 -14 -14 -14 -14
-6 -6 -6 -6 -6 -6 -7 -7 -7 -8 -8 -8 -11 -15 -16 -16 -17 -20 -22 -22 -22 -21 -20 -19 -18 -17 -17 -16 -16 -15 -15 -14 -14 -13 -13 -13 -14 -14 -14 -14 -14 -14 -14 -13

GFSNGP_850_dewp_015.txt.gz
Dewpoint
1 1 3 5 6 6 6 5 5 3 2 0 -1 -1 -1 -1 0 1 2 2 2 3 2 1 -1 -2 -4 -5 -3 -1 -1 -2 -3 -6 -10 -16 -25 -28 -27 -23 -18 -16 -16 -15
3 2 2 3 3 3 4 4 4 3 3 -1 -2 -2 -1 -1 -0 0 1 2 2 3 2 1 -1 -3 -5 -4 -2 -1 -1 -2 -5 -8 -15 -25 -28 -27 -23 -19 -17 -15 -14 -14
4 1 3 5 3 2 2 2 2 3 2 -0 -1 -2 -1 -1 -0 -0 0 1 2 3 3 1 -1 -3 -4 -4 -1 -1 -2 -4 -7 -12 -21 -27 -26 -23 -19 -17 -15 -14 -15 -15
5 3 8 1 -1 0 1 1 1 1 0 -1 -1 -2 -1 -0 -0 0 1 1 2 2 3 1 -2 -3 -5 -4 -2 -2 -4 -7 -11 -18 -25 -26 -23 -20 -18 -15 -15 -15 -15 -16
6 6 5 1 -1 0 2 2 -1 -1 -1 -2 -0 1 1 1 1 1 1 2 2 3 1 -1 -3 -4 -3 -2 -2 -3 -7 -11 -17 -24 -25 -23 -21 -20 -16 -15 -15 -16 -16 -16
7 6 6 1 -1 -2 -1 3 -1 -0 -1 -1 0 2 1 1 1 1 0 1 2 1 -0 -1 -3 -3 -2 -2 -3 -6 -9 -14 -20 -25 -23 -22 -21 -16 -15 -15 -17 -16 -16 -16
9 7 6 -1 -1 -2 2 3 -1 -1 -1 0 1 1 1 0 -0 -1 -1 -1 0 0 -1 -3 -2 -3 -3 -2 -4 -9 -12 -16 -24 -23 -22 -21 -16 -15 -16 -18 -17 -16 -16 -16
8 9 9 -1 -0 1 2 1 -0 -0 0 1 1 1 0 -1 -2 -2 -2 -1 0 -1 -3 -3 -2 -2 -2 -3 -8 -9 -11 -22 -23 -23 -22 -16 -15 -16 -18 -16 -15 -16 -16 -15
3 5 1 0 1 1 1 1 1 1 1 1 0 1 -0 -1 -2 -2 -1 -1 -1 -2 -2 -2 -2 -2 -3 -5 -7 -9 -21 -23 -23 -23 -17 -15 -15 -17 -16 -15 -16 -15 -15 -13
-0 1 1 0 1 1 1 1 1 1 0 -0 0 0 -0 -1 -2 -2 -2 -1 -2 -2 -2 -2 -1 -2 -5 -5 -7 -21 -22 -23 -22 -17 -15 -15 -15 -15 -15 -15 -14 -13 -12 -11
1 1 1 1 1 1 1 0 -0 -0 -0 -0 -1 -0 -1 -1 -1 -1 -2 -1 -1 -2 -4 -3 -2 -3 -6 -7 -20 -22 -22 -22 -18 -14 -14 -15 -15 -16 -15 -14 -13 -11 -10 -10
1 0 0 0 1 1 0 0 -1 -1 -1 -1 -2 -3 -3 -2 -2 -1 -1 -1 -1 -1 -2 -2 -3 -6 -9 -21 -22 -23 -22 -18 -14 -14 -15 -15 -15 -16 -15 -13 -12 -12 -11 -11
-0 0 1 1 1 1 1 0 -0 -1 -2 -3 -5 -7 -6 -6 -4 -2 -1 -1 -1 -1 -2 -3 -5 -10 -21 -21 -22 -21 -18 -14 -14 -15 -14 -15 -14 -14 -14 -14 -13 -13 -12 -11
1 1 1 1 1 1 0 -0 -1 -3 -5 -8 -8 -8 -8 -6 -5 -2 -1 -1 -1 -2 -3 -5 -13 -20 -21 -21 -20 -18 -14 -14 -14 -14 -15 -15 -14 -14 -13 -13 -13 -13 -13 -12
1 1 1 1 1 1 0 -1 -2 -6 -8 -8 -8 -8 -8 -7 -5 -4 -3 -2 -2 -4 -5 -15 -20 -21 -21 -20 -18 -15 -14 -14 -15 -16 -17 -14 -14 -13 -13 -13 -13 -13 -13 -13
1 1 1 1 1 0 -1 -2 -6 -8 -8 -8 -9 -8 -8 -7 -5 -5 -4 -3 -4 -6 -16 -20 -20 -20 -19 -17 -15 -14 -14 -15 -15 -15 -15 -14 -13 -13 -13 -13 -12 -12 -13 -13
0 1 1 1 0 -1 -3 -6 -7 -8 -9 -9 -9 -8 -7 -5 -4 -3 -3 -4 -5 -15 -19 -20 -20 -18 -17 -16 -14 -14 -16 -16 -15 -15 -14 -13 -13 -13 -13 -12 -13 -13 -13 -13
0 0 0 0 -1 -3 -7 -8 -9 -10 -10 -9 -8 -7 -6 -4 -3 -3 -4 -6 -15 -19 -20 -19 -18 -17 -16 -14 -14 -16 -17 -18 -16 -14 -13 -13 -13 -12 -13 -13 -13 -13 -13 -13
0 0 -0 -1 -5 -8 -9 -10 -10 -9 -9 -8 -8 -6 -4 -3 -3 -4 -4 -11 -18 -19 -17 -18 -16 -16 -13 -13 -15 -17 -19 -17 -13 -12 -13 -13 -14 -14 -14 -14 -13 -13 -13 -13
-1 -1 -4 -8 -9 -10 -10 -9 -8 -8 -7 -7 -6 -5 -4 -4 -4 -4 -7 -16 -17 -17 -17 -16 -15 -13 -13 -16 -17 -20 -17 -12 -12 -14 -14 -14 -14 -14 -14 -13 -13 -13 -13 -13
-5 -8 -9 -10 -9 -8 -7 -7 -7 -7 -6 -7 -7 -7 -7 -6 -6 -9 -15 -17 -16 -17 -15 -14 -12 -13 -16 -17 -22 -21 -14 -14 -15 -15 -15 -15 -14 -14 -13 -13 -13 -13 -13 -13
-8 -9 -8 -7 -7 -7 -7 -6 -6 -6 -6 -7 -7 -8 -7 -7 -10 -15 -17 -16 -16 -14 -12 -11 -15 -16 -19 -23 -23 -18 -17 -18 -17 -16 -15 -14 -14 -13 -13 -13 -14 -14 -14 -14
-8 -7 -8 -8 -8 -8 -7 -6 -6 -6 -7 -7 -8 -9 -10 -13 -16 -16 -14 -14 -12 -10 -13 -16 -17 -23 -23 -22 -21 -19 -19 -17 -17 -16 -14 -14 -14 -13 -14 -14 -14 -14 -14 -14
-8 -9 -8 -8 -8 -7 -6 -6 -6 -6 -7 -8 -9 -11 -13 -14 -14 -12 -11 -10 -12 -15 -16 -22 -24 -23 -22 -21 -19 -18 -17 -17 -16 -15 -15 -13 -13 -13 -13 -14 -14 -14 -14 -14
-8 -7 -7 -7 -7 -6 -6 -6 -6 -7 -8 -9 -10 -11 -11 -11 -9 -9 -13 -15 -16 -22 -24 -23 -23 -22 -21 -19 -19 -18 -17 -17 -15 -14 -14 -14 -14 -13 -14 -14 -14 -14 -14 -14
-7 -7 -6 -6 -6 -6 -6 -6 -7 -8 -9 -9 -9 -9 -8 -9 -14 -15 -16 -21 -24 -23 -23 -23 -23 -22 -20 -19 -18 -17 -16 -15 -15 -14 -14 -13 -13 -13 -14 -14 -14 -14 -14 -14
-7 -7 -6 -6 -6 -6 -6 -7 -8 -8 -9 -9 -8 -10 -14 -15 -16 -19 -23 -23 -23 -23 -23 -23 -23 -22 -20 -18 -17 -16 -15 -14 -14 -14 -14 -14 -14 -14 -14 -14 -14 -14 -14 -14

GFSNGP_850_dewp_021.txt.gz
Dewpoint
6 7 8 8 8 7 9 8 8 3 2 2 0 -0 -0 2 3 3 3 3 3 3 3 2 1 0 -1 -2 -3 -4 -3 -2 -2 -2 -2 -4 -7 -13 -22 -24 -22 -17 -16 -17
7 7 7 9 8 7 7 5 5 4 5 -1 -1 -1 -0 2 3 3 3 3 3 3 3 2 1 0 -1 -2 -4 -4 -3 -3 -2 -3 -4 -6 -10 -20 -23 -23 -18 -15 -17 -19
6 7 8 9 7 7 6 5 5 6 4 -1 0 -0 -0 2 3 3 3 3 3 3 3 2 1 -0 -2 -3 -4 -4 -3 -2 -3 -4 -6 -10 -18 -23 -24 -19 -15 -16 -19 -20
6 3 6 1 2 5 6 4 4 3 2 -0 0 1 0 1 2 2 2 2 2 2 3 2 1 -0 -2 -4 -4 -4 -3 -3 -4 -6 -8 -14 -23 -24 -19 -15 -15 -18 -20 -20
7 7 4 2 -0 1 3 3 1 3 1 1 1 1 1 0 1 2 2 2 2 2 2 1 0 -1 -3 -4 -4 -4 -3 -4 -6 -7 -12 -22 -25 -20 -14 -15 -17 -19 -20 -20
7 6 6 1 -1 -2 -1 4 1 -1 1 1 0 2 2 2 1 1 2 2 2 3 2 1 -1 -1 -2 -4 -5 -3 -4 -6 -7 -11 -22 -25 -20 -14 -14 -16 -18 -19 -20 -20
8 8 6 2 -1 -1 2 2 1 0 1 1 1 0 2 2 2 2 2 2 3 2 2 0 -1 -2 -3 -4 -3 -4 -6 -7 -11 -22 -24 -19 -14 -13 -15 -17 -18 -19 -19 -19
8 9 7 -1 -1 0 1 0 2 1 1 1 1 1 2 2 2 2 2 2 2 2 1 -1 -2 -3 -3 -4 -4 -5 -6 -10 -21 -24 -19 -14 -13 -14 -16 -17 -18 -19 -19 -17
6 6 2 1 1 1 1 1 2 1 1 1 1 1 1 0 -0 -0 -0 -0 -0 -1 -2 -3 -4 -4 -3 -3 -4 -6 -10 -22 -24 -19 -14 -13 -13 -15 -17 -17 -18 -19 -15 -13
3 2 1 1 1 1 1 1 1 1 1 1 0 -1 -2 -2 -2 -2 -2 -2 -2 -3 -3 -4 -5 -4 -3 -4 -6 -10 -21 -23 -20 -14 -13 -12 -13 -16 -17 -18 -20 -13 -12 -12
2 1 1 1 0 1 1 1 1 0 -0 -1 -2 -2 -3 -3 -3 -3 -3 -3 -3 -3 -3 -3 -3 -3 -4 -6 -10 -21 -23 -20 -16 -14 -13 -13 -15 -16 -18 -20 -14 -13 -12 -11
3 0 -0 0 1 1 1 1 0 -1 -1 -2 -4 -4 -4 -4 -4 -3 -3 -3 -3 -3 -3 -3 -3 -4 -6 -10 -21 -22 -21 -18 -16 -13 -12 -14 -16 -18 -22 -22 -19 -16 -13 -11
0 0 0 1 1 1 0 0 -1 -2 -2 -2 -2 -3 -3 -2 -2 -2 -2 -2 -3 -3 -4 -3 -4 -6 -9 -20 -22 -21 -19 -17 -15 -12 -13 -15 -17 -21 -21 -20 -19 -19 -17 -12
0 0 1 1 1 0 -0 -0 -1 -2 -2 -3 -4 -5 -6 -5 -3 -3 -3 -3 -3 -3 -3 -4 -6 -9 -19 -21 -21 -19 -18 -16 -13 -13 -15 -16 -19 -19 -18 -18 -18 -19 -17 -14
1 0 0 1 0 0 -1 -1 -2 -4 -5 -6 -6 -8 -8 -7 -5 -4 -4 -3 -3 -3 -4 -6 -8 -18 -20 -20 -19 -18 -17 -13 -12 -15 -17 -20 -19 -19 -18 -17 -16 -16 -17 -16
1 1 1 1 0 -0 -1 -3 -5 -6 -6 -7 -9 -9 -9 -8 -7 -6 -5 -4 -4 -4 -6 -9 -18 -20 -20 -19 -18 -17 -13 -12 -15 -18 -22 -21 -20 -19 -17 -16 -16 -16 -16 -15
1 1 1 1 0 -1 -2 -5 -7 -7 -8 -10 -10 -9 -8 -7 -6 -5 -5 -5 -5 -6 -11 -18 -19 -19 -19 -18 -16 -13 -12 -15 -19 -24 -22 -19 -19 -18 -17 -17 -16 -15 -15 -14
0 0 1 0 -0 -2 -5 -6 -7 -8 -10 -10 -9 -7 -7 -6 -6 -5 -5 -5 -7 -12 -18 -19 -19 -18 -17 -16 -12 -13 -16 -21 -25 -23 -21 -20 -19 -18 -17 -17 -16 -15 -14 -14
0 1 1 0 -2 -4 -6 -7 -9 -10 -9 -9 -8 -7 -6 -6 -5 -5 -5 -7 -12 -16 -18 -18 -17 -16 -15 -12 -14 -17 -24 -25 -24 -22 -21 -20 -19 -18 -17 -16 -15 -14 -14 -14
1 1 0 -2 -4 -5 -8 -9 -10 -10 -9 -8 -7 -6 -6 -5 -5 -5 -7 -10 -14 -16 -17 -17 -16 -13 -11 -15 -20 -25 -25 -24 -23 -21 -20 -18 -18 -17 -16 -15 -14 -14 -14 -14
0 -1 -2 -4 -7 -9 -10 -10 -10 -9 -7 -7 -7 -7 -7 -6 -6 -7 -10 -14 -16 -16 -15 -14 -11 -13 -16 -24 -25 -25 -24 -23 -21 -20 -19 -18 -17 -16 -15 -14 -14 -14 -14 -14
-2 -3 -6 -9 -9 -8 -8 -8 -9 -8 -8 -8 -8 -8 -8 -8 -9 -11 -14 -15 -15 -14 -11 -12 -15 -20 -25 -25 -25 -24 -23 -22 -20 -19 -18 -17 -16 -15 -14 -14 -14 -14 -14 -14
-6 -8 -9 -9 -9 -8 -7 -7 -8 -8 -8 -8 -8 -8 -9 -10 -13 -15 -14 -13 -11 -11 -15 -17 -24 -25 -25 -25 -25 -24 -23 -21 -19 -17 -16 -15 -14 -14 -14 -14 -14 -14 -14 -14
-8 -8 -8 -9 -9 -8 -8 -7 -8 -7 -8 -8 -9 -10 -11 -13 -13 -12 -10 -10 -14 -16 -21 -25 -25 -24 -24 -25 -25 -23 -20 -18 -17 -16 -15 -14 -14 -14 -14 -14 -14 -14 -14 -14
-8 -8 -9 -9 -8 -8 -8 -7 -7 -7 -8 -9 -11 -12 -11 -10 -8 -10 -14 -15 -18 -24 -24 -24 -24 -24 -25 -25 -23 -20 -18 -16 -15 -15 -14 -14 -14 -14 -14 -14 -14 -14 -14 -14
-9 -9 -8 -8 -9 -8 -7 -7 -7 -8 -9 -9 -10 -9 -8 -10 -13 -15 -17 -22 -24 -24 -24 -24 -24 -25 -25 -22 -20 -18 -16 -15 -15 -14 -14 -14 -15 -16 -15 -15 -14 -14 -14 -14
-8 -8 -8 -7 -7 -7 -7 -7 -8 -8 -9 -9 -8 -9 -12 -14 -15 -18 -23 -24 -24 -24 -24 -24 -25 -25 -22 -20 -18 -16 -15 -15 -14 -14 -14 -16 -17 -16 -16 -15 -14 -13 -13 -14

GFSNGP_850_dewp_027.txt.gz
Dewpoint
5 4 4 6 6 5 5 4 6 2 1 -1 -0 4 3 3 4 4 5 4 4 3 2 1 0 -1 -3 -4 -5 -5 -5 -4 -3 -3 -3 -3 -4 -6 -10 -16 -22 -20 -15 -15
5 4 5 7 6 5 4 4 5 5 5 0 2 1 2 3 4 4 4 4 4 3 2 1 0 -1 -2 -3 -4 -5 -5 -4 -4 -3 -3 -4 -6 -9 -14 -21 -20 -14 -15 -17
6 8 7 8 6 7 6 5 5 7 5 3 2 1 2 3 3 4 4 4 4 4 3 2 0 -0 -1 -3 -4 -5 -5 -5 -4 -3 -4 -6 -8 -11 -20 -21 -14 -14 -15 -17
8 8 10 7 6 6 6 5 4 5 4 4 2 1 2 3 3 3 3 3 3 3 3 2 1 0 -1 -2 -4 -4 -5 -5 -4 -4 -6 -7 -9 -19 -22 -14 -13 -14 -16 -17
9 8 5 1 4 6 7 7 4 4 4 2 1 1 2 2 3 3 3 3 3 3 3 3 2 1 -1 -3 -4 -5 -5 -5 -4 -5 -6 -9 -19 -22 -14 -13 -13 -14 -16 -18
7 8 7 2 -0 -2 3 4 1 4 3 2 1 2 1 2 2 3 3 3 3 3 3 3 2 1 -1 -3 -4 -5 -6 -5 -5 -6 -9 -17 -22 -14 -13 -13 -13 -15 -17 -21
7 8 5 2 1 -1 3 1 0 1 1 1 1 1 1 2 2 3 3 3 3 3 3 2 1 -0 -2 -4 -5 -6 -5 -5 -7 -9 -15 -22 -15 -13 -12 -12 -14 -16 -20 -24
6 7 5 0 -1 0 -1 1 1 1 1 1 1 1 1 2 2 3 3 3 3 3 2 2 0 -1 -3 -4 -5 -5 -5 -7 -8 -16 -22 -16 -13 -13 -12 -13 -15 -20 -24 -25
5 4 1 1 1 1 1 1 1 1 1 1 1 1 1 1 2 2 2 2 2 2 1 -1 -3 -3 -3 -4 -5 -5 -7 -8 -17 -23 -17 -14 -13 -12 -12 -14 -19 -24 -23 -23
5 2 2 1 1 1 1 1 1 1 1 1 1 1 1 1 1 2 2 2 1 0 -2 -4 -4 -4 -4 -4 -5 -7 -8 -17 -23 -18 -15 -14 -13 -12 -14 -18 -22 -24 -23 -21
3 1 1 1 1 1 1 1 1 1 1 1 1 1 1 1 1 1 1 -0 -0 -1 -2 -3 -5 -5 -5 -5 -6 -8 -17 -22 -19 -17 -16 -14 -12 -14 -16 -21 -22 -21 -20 -17
4 1 0 -0 1 1 1 1 1 1 1 1 1 1 1 1 0 -0 -1 -1 -2 -3 -3 -5 -5 -4 -5 -6 -9 -18 -22 -20 -18 -17 -15 -12 -13 -15 -21 -23 -24 -23 -22 -19
1 0 0 0 1 1 1 1 1 1 0 -0 -1 -2 -3 -3 -3 -4 -4 -4 -4 -4 -4 -4 -4 -4 -6 -9 -18 -22 -20 -18 -18 -15 -12 -13 -17 -22 -24 -27 -26 -24 -21 -20
0 0 1 1 1 1 0 0 -0 -1 -2 -3 -4 -5 -5 -5 -4 -5 -4 -4 -4 -4 -4 -4 -4 -6 -9 -18 -21 -20 -18 -18 -15 -12 -14 -18 -23 -23 -23 -23 -22 -22 -21 -19
1 0 0 1 1 1 -0 -1 -2 -3 -4 -5 -5 -6 -6 -5 -4 -4 -4 -4 -4 -4 -4 -4 -6 -9 -18 -20 -20 -18 -18 -15 -12 -14 -19 -24 -24 -24 -23 -22 -21 -20 -19 -18
1 1 1 1 1 0 -1 -2 -4 -4 -4 -4 -5 -5 -5 -5 -4 -4 -4 -4 -4 -4 -5 -7 -10 -17 -19 -19 -18 -18 -15 -12 -15 -20 -25 -25 -24 -24 -22 -21 -20 -19 -18 -16
1 1 1 1 0 -0 -2 -3 -4 -4 -5 -6 -6 -6 -5 -5 -4 -4 -5 -5 -5 -5 -7 -11 -17 -19 -19 -18 -17 -13 -12 -15 -23 -25 -25 -24 -23 -23 -21 -19 -18 -17 -16 -15
0 -0 0 0 -0 -1 -1 -3 -5 -6 -7 -8 -7 -7 -7 -6 -6 -5 -5 -6 -6 -8 -14 -18 -19 -18 -18 -16 -12 -12 -17 -24 -26 -25 -25 -24 -23 -21 -19 -18 -17 -16 -15 -15
0 0 0 0 -0 -1 -3 -5 -7 -8 -9 -9 -9 -8 -8 -7 -6 -6 -6 -7 -8 -13 -17 -18 -17 -17 -15 -11 -13 -19 -25 -26 -25 -25 -25 -23 -21 -20 -18 -16 -15 -15 -15 -15
1 0 0 -0 -1 -3 -6 -7 -9 -10 -10 -9 -8 -8 -7 -6 -6 -7 -8 -9 -15 -16 -16 -17 -16 -12 -11 -15 -23 -25 -25 -25 -25 -25 -23 -21 -19 -17 -16 -15 -15 -15 -15 -15
0 0 -0 -1 -3 -5 -7 -8 -10 -9 -9 -8 -9 -8 -7 -6 -7 -7 -9 -12 -14 -16 -16 -14 -10 -13 -17 -25 -25 -25 -25 -25 -25 -22 -20 -18 -17 -16 -15 -15 -15 -15 -16 -15
0 -0 -1 -2 -5 -6 -8 -9 -10 -10 -8 -7 -7 -7 -7 -7 -8 -11 -13 -14 -15 -14 -11 -11 -15 -21 -25 -25 -24 -25 -25 -25 -22 -20 -18 -17 -16 -15 -15 -16 -17 -17 -16 -15
-1 -1 -3 -5 -6 -8 -8 -9 -8 -9 -8 -7 -7 -7 -7 -8 -10 -12 -13 -14 -11 -10 -14 -17 -24 -25 -25 -24 -25 -25 -25 -22 -20 -18 -17 -16 -15 -15 -16 -17 -17 -16 -15 -14
-2 -3 -5 -6 -8 -9 -8 -7 -7 -7 -8 -8 -8 -8 -9 -11 -13 -13 -12 -9 -12 -15 -20 -24 -24 -24 -24 -25 -25 -25 -22 -20 -18 -17 -16 -15 -15 -16 -16 -15 -16 -16 -14 -14
-3 -5 -7 -9 -10 -8 -8 -8 -8 -8 -8 -8 -10 -11 -13 -12 -11 -9 -10 -14 -17 -22 -24 -24 -24 -24 -25 -26 -25 -23 -20 -18 -17 -16 -15 -15 -16 -16 -14 -14 -15 -14 -14 -13
-6 -8 -9 -9 -10 -10 -9 -9 -9 -9 -9 -10 -12 -12 -10 -9 -10 -13 -15 -19 -23 -24 -24 -24 -24 -25 -27 -26 -23 -20 -18 -17 -16 -15 -15 -15 -16 -14 -14 -14 -16 -15 -13 -13
-8 -9 -9 -9 -9 -9 -9 -9 -9 -9 -10 -10 -10 -9 -9 -12 -14 -16 -20 -23 -24 -23 -23 -24 -26 -27 -27 -25 -21 -19 -17 -16 -15 -15 -15 -15 -15 -14 -14 -14 -16 -15 -13 -13

GFSNGP_850_dewp_030.txt.gz
Dewpoint
5 4 4 5 6 5 5 4 5 2 1 -1 -3 -0 2 3 5 5 4 3 3 4 4 4 4 3 2 1 -1 -3 -4 -4 -4 -3 -3 -3 -3 -4 -5 -8 -13 -19 -18 -14
5 4 5 5 5 6 5 5 5 4 4 2 2 3 3 3 5 5 4 3 3 3 3 3 2 1 -0 -2 -4 -5 -5 -4 -4 -3 -3 -3 -4 -5 -8 -12 -19 -18 -14 -13
6 5 6 8 6 6 6 5 5 6 3 1 4 5 3 4 5 5 4 3 3 3 3 2 1 -0 -2 -4 -5 -5 -5 -5 -4 -4 -4 -4 -6 -8 -11 -18 -18 -13 -13 -13
7 7 9 7 7 6 6 5 3 3 3 3 4 3 3 2 4 4 4 4 3 3 2 1 -0 -2 -3 -4 -5 -5 -6 -5 -5 -4 -5 -6 -7 -10 -17 -19 -14 -13 -13 -14
9 8 7 5 7 5 6 6 4 4 3 2 3 2 2 3 3 3 4 4 4 3 2 1 0 -1 -2 -4 -5 -6 -6 -6 -5 -5 -6 -8 -10 -16 -19 -14 -13 -12 -13 -14
7 8 9 3 1 3 4 5 3 3 3 3 3 6 2 2 3 3 3 4 3 3 3 2 0 -1 -2 -3 -5 -6 -6 -6 -6 -6 -8 -10 -15 -19 -14 -13 -12 -12 -13 -18
7 8 5 2 1 0 3 2 0 4 4 4 4 3 2 3 3 3 3 3 3 3 3 2 1 -0 -2 -4 -5 -6 -6 -6 -7 -9 -10 -14 -20 -15 -13 -13 -12 -13 -16 -22
6 7 4 0 -0 1 -1 1 1 1 1 2 2 1 1 3 3 3 3 3 3 3 3 2 1 -1 -3 -4 -6 -7 -7 -7 -8 -9 -14 -20 -15 -14 -13 -12 -13 -15 -21 -26
5 4 1 1 1 1 1 1 1 1 1 1 1 0 1 2 2 2 3 3 2 3 2 1 -1 -2 -3 -5 -7 -7 -7 -8 -8 -16 -21 -16 -15 -14 -13 -13 -15 -21 -25 -25
4 2 2 1 1 1 1 1 1 1 1 1 0 -0 1 1 1 2 2 2 2 2 0 -2 -4 -4 -4 -6 -7 -7 -7 -8 -17 -21 -17 -16 -15 -13 -12 -14 -21 -24 -24 -22
3 2 1 1 1 1 1 1 1 1 1 0 1 0 0 0 1 1 1 1 0 -0 -2 -5 -6 -6 -6 -6 -6 -6 -9 -18 -21 -18 -17 -16 -14 -12 -14 -20 -23 -22 -21 -19
4 2 0 -0 1 1 1 1 1 1 0 -0 1 1 0 -0 -0 -0 -0 -1 -2 -4 -4 -6 -6 -5 -6 -6 -7 -12 -20 -21 -19 -18 -17 -14 -12 -14 -21 -24 -24 -24 -22 -21
2 1 0 1 1 1 1 1 1 1 1 1 -0 0 0 -1 -1 -2 -3 -3 -3 -4 -4 -5 -5 -4 -6 -8 -14 -20 -21 -19 -19 -18 -14 -12 -16 -23 -25 -26 -25 -24 -22 -21
0 1 1 1 1 1 0 1 1 1 1 0 -0 -1 -2 -2 -3 -3 -4 -4 -5 -5 -5 -5 -5 -5 -9 -15 -20 -20 -20 -19 -18 -13 -12 -18 -24 -24 -24 -23 -23 -24 -23 -21
1 0 1 1 1 1 0 -0 -1 -2 -3 -3 -4 -5 -5 -5 -5 -5 -5 -5 -5 -4 -4 -5 -6 -8 -14 -19 -20 -20 -19 -17 -12 -13 -20 -25 -25 -24 -24 -23 -22 -21 -20 -19
1 1 1 1 1 0 -1 -2 -3 -4 -5 -5 -5 -5 -5 -5 -5 -5 -5 -4 -4 -4 -5 -6 -8 -13 -19 -20 -19 -18 -15 -12 -14 -23 -25 -25 -24 -24 -24 -22 -20 -19 -18 -17
1 1 1 1 0 -0 -2 -3 -5 -5 -5 -5 -5 -5 -5 -5 -5 -5 -5 -5 -5 -5 -7 -8 -13 -18 -19 -19 -18 -14 -11 -17 -25 -25 -25 -25 -25 -23 -21 -19 -18 -17 -16 -16
0 -0 0 1 0 -1 -3 -4 -5 -5 -5 -5 -5 -5 -6 -5 -5 -5 -5 -5 -5 -7 -10 -15 -18 -19 -18 -16 -12 -13 -20 -25 -25 -25 -25 -25 -23 -21 -19 -18 -17 -16 -16 -16
0 0 0 0 -0 -2 -3 -4 -5 -5 -5 -6 -7 -7 -6 -6 -6 -5 -6 -6 -7 -9 -15 -18 -18 -17 -15 -11 -15 -22 -25 -25 -25 -25 -25 -23 -21 -19 -18 -16 -16 -16 -16 -17
0 0 0 0 -1 -2 -3 -4 -6 -6 -7 -9 -8 -8 -7 -6 -6 -6 -7 -8 -12 -16 -17 -17 -16 -12 -11 -17 -24 -25 -25 -25 -25 -25 -23 -21 -19 -17 -16 -15 -16 -17 -18 -18
0 0 0 -0 -1 -2 -4 -6 -8 -9 -8 -9 -10 -8 -7 -7 -7 -7 -8 -11 -15 -15 -16 -15 -10 -13 -19 -25 -25 -25 -25 -26 -25 -23 -20 -18 -17 -16 -16 -16 -17 -17 -17 -16
0 -0 -0 -1 -2 -4 -6 -8 -10 -11 -9 -9 -8 -8 -7 -7 -8 -9 -12 -13 -15 -15 -12 -11 -15 -22 -25 -25 -24 -25 -26 -25 -23 -20 -18 -17 -16 -15 -16 -17 -15 -15 -16 -14
-0 -1 -1 -2 -5 -7 -7 -9 -10 -10 -9 -8 -8 -8 -8 -8 -9 -11 -13 -14 -14 -10 -13 -17 -23 -25 -24 -24 -25 -27 -26 -23 -19 -18 -16 -16 -15 -15 -16 -15 -14 -15 -15 -14
-1 -1 -2 -4 -6 -8 -8 -8 -9 -8 -8 -8 -8 -8 -8 -10 -12 -13 -13 -11 -10 -14 -19 -24 -24 -24 -24 -25 -27 -26 -22 -19 -18 -16 -16 -16 -15 -16 -15 -14 -14 -15 -15 -14
-1 -2 -4 -6 -8 -9 -10 -8 -7 -7 -8 -8 -8 -9 -11 -12 -12 -11 -9 -12 -16 -20 -24 -24 -24 -24 -26 -28 -26 -23 -20 -18 -17 -16 -16 -16 -15 -16 -15 -14 -14 -16 -16 -14
-3 -5 -6 -8 -10 -10 -9 -8 -9 -8 -8 -9 -10 -12 -12 -10 -9 -10 -14 -17 -21 -24 -24 -24 -24 -26 -28 -27 -24 -21 -19 -17 -16 -16 -16 -16 -15 -15 -14 -14 -14 -16 -15 -14
-5 -6 -8 -9 -9 -10 -10 -9 -10 -9 -9 -10 -11 -11 -9 -10 -13 -15 -18 -22 -23 -23 -23 -24 -26 -27 -27 -26 -23 -20 -18 -17 -16 -16 -16 -16 -15 -14 -14 -14 -14 -15 -14 -13

GFSNGP_850_dewp_033.txt.gz
Dewpoint
3 3 3 5 5 5 5 4 5 2 4 1 -1 -2 -0 2 3 5 4 3 3 3 5 6 8 8 7 6 3 -0 -3 -4 -5 -4 -4 -3 -3 -4 -5 -6 -8 -13 -16 -15
5 4 4 6 5 5 5 5 5 4 4 0 -1 1 2 4 4 5 4 3 2 3 5 6 7 6 5 2 -0 -2 -4 -5 -4 -4 -3 -4 -4 -5 -6 -8 -12 -16 -15 -13
6 4 6 8 7 7 6 5 4 5 2 0 1 1 3 3 4 5 5 3 2 3 4 5 5 5 3 0 -2 -4 -5 -5 -4 -4 -4 -4 -5 -6 -9 -11 -15 -15 -13 -13
6 7 9 8 6 5 6 5 4 4 3 1 1 2 3 3 2 5 5 3 3 3 3 3 2 1 -0 -2 -4 -5 -5 -5 -5 -4 -5 -5 -7 -9 -11 -15 -15 -13 -13 -12
8 8 5 3 3 5 7 6 4 4 3 1 4 3 2 3 3 4 5 4 3 3 2 1 0 -1 -2 -5 -6 -6 -6 -5 -5 -5 -6 -7 -8 -10 -15 -16 -13 -13 -12 -13
6 8 8 4 2 2 3 5 4 4 3 4 3 6 3 3 3 4 4 4 3 2 2 0 -2 -3 -5 -6 -7 -6 -6 -6 -6 -7 -8 -8 -9 -14 -16 -14 -13 -13 -13 -15
7 8 5 2 1 2 3 4 2 4 3 3 5 3 2 3 3 4 4 4 3 2 1 -1 -2 -4 -5 -6 -7 -7 -7 -6 -7 -8 -8 -9 -14 -17 -14 -14 -13 -13 -14 -19
7 7 6 1 1 2 0 1 1 1 2 5 4 1 2 3 3 3 3 3 3 2 0 -1 -3 -4 -5 -6 -7 -7 -7 -7 -7 -8 -9 -14 -18 -15 -15 -14 -13 -14 -19 -25
4 4 1 2 1 1 1 1 1 1 1 2 3 1 2 2 2 3 3 3 2 2 0 -2 -4 -4 -5 -6 -7 -7 -7 -7 -7 -8 -16 -18 -16 -16 -14 -13 -14 -21 -25 -26
4 2 2 1 1 1 1 1 1 1 1 1 1 1 1 1 1 1 1 2 1 1 -1 -3 -5 -5 -4 -6 -7 -7 -6 -7 -10 -18 -18 -17 -17 -15 -13 -15 -21 -25 -26 -25
3 2 1 1 1 1 1 1 1 0 0 0 1 1 1 0 0 0 1 1 0 0 -2 -4 -6 -6 -7 -7 -6 -6 -7 -11 -19 -19 -18 -17 -15 -13 -15 -22 -25 -25 -24 -23
4 2 1 -0 1 1 1 1 0 0 -0 -0 1 0 0 -1 -0 1 1 -1 -1 -3 -4 -7 -7 -6 -7 -7 -7 -7 -14 -20 -19 -18 -17 -14 -12 -16 -23 -25 -25 -25 -24 -23
2 1 0 1 1 1 1 0 0 0 0 0 -1 -0 -0 -1 -1 -1 -2 -3 -4 -5 -6 -6 -6 -5 -6 -8 -12 -17 -20 -19 -18 -17 -13 -12 -18 -25 -26 -26 -26 -26 -24 -22
1 1 1 1 1 1 1 1 0 0 -0 -0 -0 -1 -1 -2 -3 -4 -5 -5 -5 -5 -5 -5 -5 -6 -10 -14 -19 -20 -19 -18 -16 -12 -13 -22 -26 -25 -25 -25 -25 -26 -24 -21
1 1 1 1 1 1 1 1 0 -0 -1 -1 -2 -2 -2 -3 -4 -4 -5 -5 -5 -5 -5 -5 -6 -9 -16 -19 -19 -19 -18 -15 -12 -15 -25 -26 -25 -25 -25 -24 -23 -21 -20 -19
1 1 1 1 0 0 0 0 -0 -2 -2 -3 -4 -4 -4 -5 -5 -5 -6 -5 -4 -5 -6 -7 -10 -15 -19 -19 -19 -18 -13 -11 -19 -25 -25 -25 -26 -25 -24 -23 -20 -19 -18 -17
1 1 1 1 0 -0 -0 -2 -3 -4 -5 -5 -5 -6 -5 -5 -5 -5 -6 -6 -5 -7 -9 -11 -14 -18 -19 -18 -17 -11 -13 -22 -25 -25 -25 -26 -25 -24 -22 -19 -18 -17 -17 -18
0 0 1 1 -0 -1 -2 -4 -5 -6 -6 -6 -6 -6 -6 -6 -5 -6 -6 -6 -6 -8 -12 -15 -18 -18 -18 -15 -11 -16 -24 -25 -25 -25 -26 -25 -24 -21 -19 -18 -17 -16 -18 -18
0 0 1 1 -0 -2 -3 -5 -5 -6 -6 -6 -6 -6 -6 -6 -6 -6 -6 -6 -7 -9 -14 -17 -17 -17 -13 -11 -18 -25 -25 -25 -25 -26 -26 -24 -21 -19 -17 -16 -16 -17 -16 -17
0 0 1 0 -1 -3 -4 -5 -5 -5 -6 -6 -6 -6 -6 -6 -6 -6 -7 -7 -11 -14 -17 -16 -16 -11 -12 -21 -25 -25 -24 -26 -27 -27 -23 -20 -18 -17 -16 -16 -17 -16 -15 -17
0 0 0 -0 -2 -3 -5 -5 -6 -6 -7 -8 -9 -8 -7 -7 -7 -7 -8 -10 -14 -16 -16 -14 -10 -15 -23 -25 -24 -24 -26 -28 -26 -22 -20 -18 -17 -16 -16 -17 -16 -15 -15 -16
0 0 0 -1 -2 -3 -4 -5 -7 -10 -9 -8 -9 -8 -8 -8 -8 -9 -11 -13 -14 -15 -12 -11 -16 -23 -24 -24 -24 -26 -28 -26 -22 -20 -18 -17 -16 -16 -16 -16 -15 -15 -16 -16
-0 -0 -0 -1 -2 -4 -5 -6 -10 -11 -10 -9 -9 -8 -8 -8 -9 -10 -13 -14 -14 -10 -12 -17 -23 -24 -24 -24 -27 -29 -27 -23 -20 -18 -17 -16 -16 -15 -16 -15 -14 -14 -16 -16
-0 -1 -1 -2 -3 -6 -7 -9 -9 -10 -9 -8 -8 -8 -9 -9 -11 -13 -13 -13 -10 -14 -18 -23 -24 -24 -24 -27 -29 -27 -24 -21 -19 -17 -16 -16 -16 -15 -15 -14 -14 -15 -16 -16
-1 -1 -2 -4 -6 -8 -9 -9 -9 -8 -8 -8 -8 -8 -10 -11 -13 -12 -11 -11 -15 -19 -23 -24 -23 -24 -26 -28 -28 -25 -22 -19 -18 -17 -16 -16 -16 -15 -15 -14 -14 -14 -16 -15
-2 -3 -4 -6 -8 -9 -10 -9 -9 -8 -8 -8 -9 -10 -12 -12 -11 -10 -12 -16 -20 -23 -23 -23 -24 -26 -28 -27 -26 -24 -20 -19 -17 -16 -16 -16 -16 -15 -15 -15 -14 -14 -15 -14
-2 -4 -5 -7 -8 -10 -10 -9 -10 -9 -9 -9 -10 -12 -11 -9 -10 -14 -17 -20 -23 -23 -23 -24 -25 -27 -27 -27 -25 -22 -19 -17 -16 -16 -16 -16 -16 -15 -15 -15 -14 -14 -14 -12

GFSNGP_850_dewp_036.txt.gz
Dewpoint
2 1 2 4 5 5 5 5 5 3 3 2 0 1 -1 -2 1 3 4 3 3 3 3 2 1 4 8 8 7 7 6 2 -3 -5 -5 -4 -4 -4 -5 -5 -6 -8 -11 -14
5 3 4 6 6 6 6 6 5 5 5 0 -1 -1 -1 -1 0 3 4 3 2 1 1 -1 3 6 7 7 6 3 -1 -3 -5 -5 -4 -4 -4 -5 -6 -7 -8 -11 -14 -14
7 4 5 8 8 7 7 6 5 6 3 -0 0 0 1 3 3 4 4 3 1 0 -1 -1 4 7 6 5 1 -2 -3 -5 -5 -5 -4 -5 -6 -6 -7 -9 -11 -14 -14 -13
7 6 9 6 4 5 6 5 4 2 1 1 2 3 3 3 3 3 5 2 1 -1 -1 2 4 4 4 0 -2 -3 -6 -6 -5 -5 -5 -6 -7 -8 -9 -11 -14 -14 -13 -13
7 7 5 4 3 3 6 7 5 4 3 3 3 3 3 3 5 6 3 1 -0 2 2 1 1 1 -1 -4 -6 -6 -6 -5 -5 -5 -5 -7 -8 -9 -11 -14 -15 -14 -13 -13
7 7 7 3 1 1 4 8 5 5 4 4 4 6 4 3 5 4 1 -0 0 1 1 1 -1 -2 -3 -5 -6 -6 -6 -6 -6 -6 -7 -8 -9 -11 -14 -15 -14 -14 -13 -13
7 7 5 1 2 2 3 4 2 4 5 4 5 2 2 3 3 5 3 3 1 1 1 0 -2 -3 -5 -7 -7 -6 -6 -6 -7 -7 -8 -9 -11 -15 -15 -15 -15 -13 -13 -17
8 7 7 1 2 4 2 2 1 1 3 5 3 1 1 3 2 1 1 2 1 1 -1 -3 -4 -6 -7 -7 -7 -7 -7 -7 -7 -8 -10 -12 -16 -16 -16 -15 -13 -13 -17 -25
4 4 2 2 2 2 1 1 1 1 2 4 2 1 1 1 2 2 2 1 1 -0 -3 -6 -7 -6 -6 -7 -7 -7 -7 -7 -9 -10 -13 -17 -17 -16 -15 -13 -14 -20 -25 -24
5 3 2 1 1 1 1 1 1 1 1 1 1 1 1 1 1 1 0 -0 -1 -2 -4 -6 -7 -7 -6 -7 -7 -7 -8 -8 -9 -14 -18 -17 -17 -15 -13 -15 -23 -24 -18 -15
4 3 2 1 1 1 1 0 -0 0 -0 -0 0 -1 0 0 0 -0 -0 -1 -2 -3 -4 -6 -7 -7 -7 -7 -8 -8 -8 -9 -16 -18 -18 -17 -15 -13 -16 -24 -25 -24 -23 -22
4 2 1 1 1 1 1 -0 -1 -0 -1 -0 1 0 0 0 0 0 -0 -1 -3 -4 -5 -7 -7 -7 -8 -8 -8 -7 -10 -17 -19 -18 -17 -14 -13 -19 -25 -25 -25 -26 -26 -24
2 1 1 1 1 1 0 -0 -0 -0 -0 -1 -1 -1 0 0 -0 -0 -2 -3 -4 -5 -6 -7 -7 -7 -8 -8 -10 -16 -19 -19 -19 -17 -13 -14 -23 -25 -25 -25 -27 -28 -26 -23
1 1 1 1 1 1 0 -1 -1 -0 -1 -0 -0 -0 -0 -1 -2 -3 -4 -5 -6 -6 -7 -6 -6 -6 -9 -13 -17 -19 -20 -19 -15 -12 -18 -25 -25 -25 -26 -27 -28 -27 -22 -20
1 1 1 1 1 1 -0 -0 -1 -0 -1 -1 -1 -1 -2 -3 -4 -5 -6 -6 -6 -6 -6 -6 -6 -9 -14 -18 -19 -19 -18 -13 -13 -22 -25 -25 -25 -27 -27 -26 -22 -20 -19 -19
1 1 1 1 1 1 0 -1 -0 -1 -2 -2 -2 -3 -4 -4 -5 -5 -6 -6 -5 -5 -6 -7 -9 -13 -18 -19 -18 -16 -11 -15 -24 -25 -24 -25 -27 -27 -25 -21 -19 -18 -17 -16
1 1 1 1 0 0 -1 -1 -1 -1 -2 -3 -3 -4 -4 -5 -6 -6 -6 -6 -5 -6 -8 -10 -14 -18 -19 -17 -14 -11 -18 -24 -25 -24 -26 -28 -27 -23 -21 -19 -18 -17 -18 -17
1 1 2 2 0 0 -0 -0 -2 -3 -4 -5 -5 -5 -6 -6 -6 -6 -6 -6 -7 -9 -12 -16 -18 -18 -17 -12 -13 -21 -25 -24 -24 -26 -28 -26 -22 -20 -19 -18 -17 -17 -17 -16
1 0 1 2 0 0 0 -2 -4 -5 -6 -6 -6 -6 -6 -6 -5 -5 -6 -7 -8 -11 -15 -17 -17 -15 -11 -14 -22 -25 -24 -24 -27 -29 -26 -22 -20 -19 -18 -17 -17 -17 -15 -16
0 0 1 1 -0 -0 -2 -4 -6 -6 -6 -7 -6 -6 -6 -6 -6 -6 -7 -8 -11 -14 -17 -16 -14 -11 -16 -23 -24 -24 -24 -28 -29 -25 -22 -20 -19 -18 -17 -17 -17 -16 -15 -16
0 0 0 0 -1 -2 -4 -6 -6 -7 -7 -7 -7 -7 -7 -6 -7 -7 -8 -10 -15 -16 -16 -13 -11 -16 -23 -24 -24 -24 -28 -29 -25 -22 -20 -19 -18 -17 -16 -16 -16 -15 -15 -16
0 0 0 -0 -1 -3 -5 -6 -6 -7 -7 -7 -7 -7 -7 -7 -8 -9 -10 -13 -15 -15 -12 -11 -17 -23 -24 -24 -24 -28 -29 -26 -23 -21 -19 -18 -17 -17 -16 -16 -15 -15 -15 -16
0 0 -0 -1 -2 -4 -5 -5 -6 -8 -8 -7 -8 -8 -8 -8 -9 -10 -13 -14 -14 -11 -12 -17 -23 -24 -23 -24 -27 -28 -27 -24 -22 -20 -18 -17 -16 -16 -16 -15 -15 -14 -14 -16
-0 -0 -1 -2 -3 -4 -4 -5 -6 -8 -8 -8 -8 -8 -9 -9 -10 -12 -14 -14 -10 -13 -18 -22 -23 -23 -24 -27 -28 -27 -25 -23 -20 -19 -17 -16 -16 -16 -15 -15 -15 -14 -14 -15
-1 -1 -1 -2 -3 -4 -5 -7 -8 -8 -9 -8 -8 -9 -9 -10 -12 -13 -13 -10 -14 -18 -22 -23 -23 -24 -26 -27 -27 -26 -25 -22 -19 -18 -16 -16 -16 -16 -16 -15 -15 -14 -15 -15
-1 -1 -2 -3 -4 -5 -8 -9 -9 -9 -8 -9 -9 -9 -11 -12 -13 -11 -10 -14 -19 -22 -23 -23 -23 -25 -26 -27 -27 -26 -23 -20 -18 -16 -16 -16 -16 -16 -16 -15 -15 -15 -15 -13
-2 -2 -3 -4 -6 -8 -9 -10 -10 -9 -9 -9 -9 -11 -12 -12 -10 -12 -15 -19 -22 -23 -23 -23 -24 -25 -27 -27 -27 -24 -20 -18 -16 -16 -16 -16 -16 -16 -16 -15 -15 -15 -14 -11

GFSNGP_850_dewp_039.txt.gz
Dewpoint
1 1 1 3 4 4 6 6 6 5 5 3 2 0 1 2 1 -1 -1 2 4 4 4 4 4 4 1 -1 -1 2 4 4 3 3 1 -1 -4 -6 -5 -5 -5 -5 -6 -8
4 2 3 6 4 5 7 7 6 6 6 2 -0 -0 -1 0 -0 -1 2 4 3 3 3 3 1 -2 -3 -3 -0 3 4 3 1 -0 -3 -5 -6 -4 -5 -5 -5 -6 -7 -10
5 3 3 7 8 7 7 6 6 6 3 0 1 1 3 3 4 4 4 4 2 2 2 -2 -2 -2 -4 -2 2 3 3 -1 -2 -4 -6 -6 -5 -5 -5 -5 -6 -7 -11 -14
7 4 9 5 2 3 5 6 5 4 3 2 3 3 4 4 4 3 4 3 2 0 -3 -4 -3 -4 -4 0 1 1 -3 -3 -4 -4 -5 -6 -4 -5 -5 -6 -8 -11 -14 -14
6 5 3 3 2 3 5 7 5 6 5 4 4 5 4 5 5 5 3 1 -1 -4 -5 -4 -3 -3 -3 -3 -4 -4 -4 -3 -3 -4 -3 -5 -5 -6 -7 -9 -11 -14 -14 -14
4 7 6 2 1 1 4 7 4 5 5 5 5 6 4 4 2 1 0 -1 -3 -4 -4 -2 -5 -5 -3 -3 -1 -1 -2 -6 -6 -6 -6 -6 -6 -8 -9 -9 -15 -15 -14 -13
6 7 4 1 1 1 5 4 2 4 5 5 3 2 3 3 1 1 -1 0 -0 -1 -1 -0 1 0 -2 -4 -8 -8 -7 -7 -7 -7 -6 -7 -6 -4 -14 -15 -16 -15 -13 -15
7 8 7 1 2 4 3 2 1 2 4 2 2 2 2 1 1 -2 -4 -4 -5 -7 -7 -8 -8 -8 -8 -7 -7 -6 -6 -6 -6 -7 -4 -3 -10 -15 -16 -16 -15 -13 -15 -20
6 5 1 1 2 2 2 1 2 2 4 6 4 1 2 3 1 -1 -2 -2 -4 -4 -6 -7 -6 -3 -3 -5 -6 -6 -6 -5 -3 -5 -9 -12 -16 -17 -17 -15 -13 -18 -20 -16
4 3 2 2 2 2 1 1 1 2 2 3 1 1 -1 -1 -1 -2 -2 -2 -2 -3 -4 -5 -6 -7 -6 -5 -6 -3 -4 -7 -8 -9 -14 -17 -18 -17 -14 -14 -21 -22 -19 -18
3 2 1 1 2 1 0 -0 -1 -1 0 -0 -0 -1 -2 -3 -3 -4 -4 -5 -6 -5 -6 -7 -7 -7 -7 -6 -7 -7 -7 -7 -10 -16 -18 -18 -17 -13 -16 -23 -24 -25 -26 -27
2 2 2 1 1 1 0 -1 -1 -1 -1 -1 -2 -2 -3 -4 -4 -4 -5 -5 -6 -7 -7 -8 -8 -7 -8 -8 -8 -7 -7 -12 -17 -19 -18 -15 -13 -20 -24 -23 -25 -27 -28 -25
1 1 2 1 1 1 -0 -1 -1 -2 -2 -3 -4 -3 -3 -4 -4 -5 -5 -5 -6 -7 -7 -8 -8 -8 -8 -8 -7 -10 -15 -19 -19 -17 -13 -14 -23 -24 -24 -24 -24 -22 -21 -21
2 2 2 1 1 0 -1 -2 -2 -3 -2 -4 -4 -3 -2 -3 -4 -4 -5 -6 -6 -7 -7 -8 -8 -7 -8 -9 -13 -18 -19 -18 -15 -12 -18 -24 -24 -25 -27 -27 -26 -22 -19 -17
2 1 1 1 0 -0 -0 -1 -0 -2 -2 -4 -3 -2 -3 -4 -5 -6 -6 -7 -7 -7 -7 -7 -7 -8 -12 -16 -19 -19 -17 -13 -13 -22 -24 -24 -26 -28 -27 -24 -21 -19 -17 -16
2 2 1 1 0 -0 -1 -0 -1 -3 -1 -2 -3 -4 -3 -3 -4 -6 -7 -7 -6 -6 -7 -7 -8 -13 -17 -19 -19 -16 -11 -17 -24 -24 -24 -26 -29 -27 -23 -21 -19 -17 -15 -15
1 1 1 1 1 -1 -1 -1 -1 -2 -1 -2 -2 -3 -4 -5 -6 -7 -7 -7 -6 -6 -8 -10 -13 -18 -19 -18 -13 -12 -21 -24 -24 -24 -27 -29 -26 -23 -21 -19 -18 -17 -16 -16
2 1 1 2 1 -0 -1 -2 -2 -2 -2 -3 -3 -5 -5 -5 -6 -6 -6 -6 -6 -8 -11 -14 -18 -18 -16 -11 -14 -22 -24 -23 -25 -28 -29 -26 -23 -21 -19 -18 -17 -16 -17 -17
2 1 1 2 1 0 -0 -1 -2 -3 -4 -4 -4 -5 -6 -6 -6 -6 -6 -6 -8 -10 -14 -17 -17 -14 -11 -16 -23 -24 -23 -25 -28 -28 -26 -23 -21 -19 -18 -17 -17 -17 -16 -16
1 0 0 1 1 0 0 -1 -3 -4 -5 -5 -6 -6 -6 -6 -6 -6 -7 -9 -10 -13 -17 -16 -14 -11 -17 -23 -24 -23 -25 -28 -28 -26 -23 -21 -20 -18 -17 -17 -16 -16 -16 -16
1 0 0 1 0 -0 -0 -2 -5 -6 -6 -6 -7 -7 -6 -6 -6 -6 -7 -9 -13 -16 -16 -13 -11 -17 -22 -23 -23 -24 -28 -28 -26 -24 -22 -20 -18 -17 -17 -17 -16 -16 -15 -15
0 0 0 -0 -1 -1 -2 -4 -6 -7 -7 -7 -7 -7 -7 -6 -6 -8 -9 -12 -15 -15 -13 -11 -16 -22 -23 -23 -24 -27 -28 -27 -25 -23 -21 -19 -18 -17 -17 -17 -16 -16 -15 -15
0 0 -0 -1 -1 -2 -4 -5 -6 -7 -8 -8 -7 -7 -7 -7 -7 -8 -11 -14 -15 -13 -11 -16 -22 -23 -23 -24 -26 -28 -27 -26 -24 -22 -20 -18 -17 -17 -17 -17 -16 -15 -15 -15
-0 -0 -1 -1 -2 -3 -5 -6 -6 -7 -8 -7 -7 -7 -8 -8 -9 -10 -13 -14 -13 -11 -15 -21 -23 -23 -23 -25 -27 -28 -27 -25 -23 -20 -18 -17 -17 -16 -16 -16 -16 -15 -15 -15
-0 -1 -1 -2 -3 -4 -5 -6 -6 -7 -7 -8 -8 -8 -8 -9 -11 -12 -14 -13 -11 -15 -20 -22 -23 -23 -24 -26 -28 -27 -26 -23 -20 -18 -17 -17 -17 -16 -16 -16 -16 -15 -15 -15
-1 -1 -1 -2 -3 -4 -5 -5 -7 -7 -8 -8 -8 -8 -9 -10 -12 -13 -13 -11 -15 -19 -22 -22 -22 -23 -25 -27 -28 -27 -24 -21 -19 -18 -17 -17 -17 -16 -16 -16 -16 -15 -16 -13
-2 -2 -2 -3 -4 -4 -5 -6 -7 -6 -9 -9 -9 -9 -10 -11 -13 -12 -11 -15 -19 -21 -22 -22 -22 -23 -26 -28 -28 -25 -21 -19 -18 -17 -17 -17 -16 -16 -16 -15 -16 -16 -15 -12

GFSNGP_850_dewp_042.txt.gz
Dewpoint
2 1 1 2 3 3 6 6 6 5 6 5 5 3 2 1 1 1 1 1 1 3 4 4 6 6 5 5 4 4 2 3 3 2 2 2 -0 -2 -0 -3 -6 -5 -5 -5
3 2 2 3 3 4 4 5 6 7 7 3 2 0 3 4 4 3 3 1 4 3 4 4 5 4 3 2 2 1 0 -1 -1 -1 -1 -1 -1 -5 -6 -4 -5 -5 -3 -6
5 4 4 6 5 6 7 6 6 7 5 3 3 3 4 5 5 5 4 4 3 3 3 3 1 1 0 -1 -3 -4 -5 -4 -3 -2 -3 -4 -3 -1 -1 -4 -4 -5 -7 -9
5 5 7 5 4 4 4 4 6 6 5 5 5 4 4 4 4 5 4 4 2 2 2 1 -1 -1 -2 -4 -6 -7 -6 -6 -5 -4 -3 -3 -6 -7 -8 -7 -6 -6 -8 -11
6 5 3 2 3 3 3 5 5 5 5 5 5 5 3 2 1 3 2 1 1 0 -0 -2 -4 -6 -7 -7 -7 -7 -7 -5 -3 -2 -3 -3 -2 -5 -8 -6 -6 -8 -12 -15
6 6 6 2 1 2 4 7 3 5 5 5 3 6 4 2 -1 -1 -2 -2 -3 -5 -6 -7 -7 -6 -6 -7 -6 -4 -4 -3 -3 -1 1 -2 -6 -6 -7 -4 -6 -15 -16 -15
6 6 4 1 2 2 6 5 3 4 5 2 3 3 2 1 0 -3 -4 -6 -6 -6 -5 -6 -6 -5 -4 -2 -0 0 1 1 1 -3 -8 -7 -7 -1 -3 -13 -16 -16 -14 -14
4 6 6 1 2 5 3 2 2 3 5 2 2 1 1 -1 -0 -0 -0 -1 -1 -2 -3 -2 -1 -0 1 1 2 1 -3 -8 -9 -7 -4 -1 -4 -13 -16 -17 -16 -14 -15 -20
5 4 2 2 2 2 2 2 2 2 5 4 2 2 0 -2 -5 -6 -6 -6 -5 -4 -3 -3 0 -0 -4 -8 -9 -8 -8 -7 -7 -4 -7 -11 -15 -17 -18 -15 -13 -18 -22 -22
5 3 2 1 2 1 1 0 1 2 4 4 3 1 1 0 -0 -2 -5 -6 -7 -8 -8 -8 -8 -7 -6 -7 -8 -8 -6 -4 -7 -9 -13 -17 -18 -17 -14 -14 -22 -24 -24 -26
3 2 2 2 1 1 0 -1 -1 0 2 2 1 -1 -2 -3 -5 -5 -7 -6 -2 -2 -3 -5 -7 -8 -9 -8 -5 -4 -6 -7 -10 -14 -18 -18 -16 -13 -17 -23 -23 -24 -27 -29
3 2 2 2 1 1 -0 -1 -1 -1 -0 -1 -0 -1 -2 -3 -5 -6 -7 -6 -6 -7 -8 -8 -8 -8 -8 -8 -7 -6 -6 -11 -16 -19 -18 -15 -13 -21 -23 -23 -25 -28 -28 -24
1 1 2 1 1 0 -0 -1 -1 -1 -1 -2 -2 -2 -2 -4 -5 -5 -5 -6 -7 -8 -7 -8 -8 -8 -8 -7 -6 -7 -12 -17 -19 -18 -13 -16 -23 -23 -24 -26 -26 -23 -19 -17
2 2 2 2 1 0 -1 -1 -2 -2 -2 -2 -2 -4 -3 -4 -5 -5 -6 -7 -8 -8 -8 -8 -8 -7 -7 -7 -10 -15 -18 -19 -15 -13 -21 -23 -23 -26 -28 -28 -25 -22 -20 -19
2 2 2 2 1 -0 -1 -1 -1 -2 -3 -3 -3 -3 -4 -4 -5 -6 -7 -8 -8 -8 -8 -8 -6 -6 -9 -12 -16 -19 -17 -13 -16 -23 -23 -24 -27 -29 -27 -24 -22 -21 -20 -19
2 1 1 1 0 -1 -1 -1 -1 -3 -3 -3 -3 -4 -4 -5 -6 -7 -8 -8 -7 -7 -7 -6 -6 -9 -13 -17 -18 -15 -12 -20 -23 -23 -24 -28 -29 -27 -24 -22 -21 -19 -18 -17
2 2 1 1 -0 -1 -1 -1 -2 -2 -3 -3 -3 -4 -5 -6 -8 -9 -8 -8 -7 -6 -6 -7 -9 -14 -18 -17 -13 -13 -21 -23 -23 -25 -28 -29 -26 -23 -21 -20 -19 -18 -17 -17
3 2 1 1 0 -0 -1 -2 -2 -3 -3 -2 -3 -4 -6 -6 -6 -7 -7 -6 -6 -6 -9 -11 -16 -18 -16 -12 -15 -22 -23 -23 -25 -28 -28 -26 -23 -22 -20 -19 -18 -17 -17 -17
2 2 1 1 1 0 -1 -1 -2 -1 -2 -2 -4 -5 -6 -6 -6 -6 -6 -6 -6 -8 -12 -17 -17 -15 -11 -17 -22 -22 -23 -25 -27 -28 -26 -23 -22 -20 -19 -18 -17 -17 -16 -16
2 1 1 2 1 0 -1 -2 -2 -2 -3 -4 -4 -5 -6 -6 -6 -6 -6 -7 -9 -12 -16 -17 -15 -11 -17 -22 -22 -23 -24 -27 -28 -26 -24 -23 -21 -19 -18 -17 -17 -16 -16 -16
1 1 1 1 0 -0 -1 -1 -2 -4 -4 -5 -5 -5 -6 -6 -6 -6 -7 -8 -11 -15 -16 -15 -11 -16 -21 -22 -22 -24 -26 -28 -26 -25 -24 -22 -20 -18 -17 -17 -17 -16 -16 -16
0 0 0 0 0 -1 -1 -2 -4 -5 -5 -6 -6 -7 -7 -6 -6 -7 -8 -10 -13 -16 -15 -11 -15 -21 -22 -22 -23 -25 -28 -27 -26 -24 -22 -20 -19 -18 -17 -17 -17 -16 -16 -16
-0 -0 -0 -1 -1 -1 -2 -3 -4 -6 -6 -7 -7 -7 -7 -7 -7 -7 -9 -12 -15 -15 -12 -14 -20 -22 -22 -22 -24 -27 -28 -27 -25 -22 -20 -19 -18 -17 -17 -17 -17 -17 -16 -16
-1 -1 -1 -2 -2 -2 -3 -5 -6 -7 -7 -7 -7 -7 -8 -8 -7 -8 -11 -14 -15 -12 -12 -18 -21 -22 -22 -23 -25 -28 -28 -26 -23 -20 -19 -18 -18 -18 -17 -17 -17 -16 -16 -16
-0 -1 -2 -2 -3 -3 -4 -5 -7 -7 -7 -8 -7 -7 -7 -8 -9 -10 -13 -14 -13 -11 -16 -21 -22 -22 -22 -24 -28 -28 -28 -24 -21 -19 -18 -18 -18 -17 -17 -17 -16 -16 -16 -16
-1 -1 -2 -3 -3 -4 -5 -6 -7 -7 -8 -8 -8 -8 -8 -9 -10 -11 -14 -14 -11 -15 -19 -21 -21 -22 -22 -26 -28 -28 -26 -22 -20 -19 -18 -18 -18 -18 -17 -16 -16 -16 -16 -14
-1 -1 -2 -2 -4 -4 -5 -6 -7 -7 -8 -8 -8 -8 -8 -9 -11 -13 -14 -11 -14 -18 -21 -21 -21 -22 -24 -28 -29 -27 -24 -21 -19 -19 -19 -18 -18 -17 -16 -16 -15 -14 -14 -12

GFSNGP_850_dewp_045.txt.gz
Dewpoint
2 2 2 2 3 3 3 3 5 2 3 3 3 4 4 3 3 3 4 3 2 1 2 1 4 7 6 6 7 8 8 7 7 6 5 4 3 0 -2 -1 -4 -4 -1 1
0 1 2 2 3 3 3 3 5 5 6 3 3 4 3 5 5 4 3 4 3 3 3 5 5 5 5 5 5 5 6 5 4 2 1 1 -3 -4 -4 -5 -2 0 -1 -8
2 2 4 5 4 3 3 4 5 8 5 5 5 5 4 3 3 3 5 4 3 3 3 4 4 4 2 1 1 2 1 -0 -2 -2 -4 -5 -4 -4 -2 -2 -4 -4 -1 -3
2 3 5 4 2 3 4 5 4 5 5 4 5 4 3 -0 -0 1 5 4 2 2 1 -1 0 1 -0 -1 -2 -2 -3 -6 -7 -6 -3 -4 -3 -3 -2 -1 -1 -3 -7 -6
5 4 2 3 3 3 4 4 5 5 4 4 4 5 3 -1 -2 -1 0 1 -1 -2 -3 -2 -2 -3 -2 -4 -5 -6 -7 -5 -5 -6 -4 -1 -0 -1 1 1 -1 -12 -12 -10
6 5 6 4 1 2 2 5 2 4 5 4 3 5 3 0 -4 -4 -3 -2 -1 -1 -3 -5 -6 -6 -5 -7 -7 -6 -3 -2 -1 0 -0 -0 1 0 -6 -12 -10 -4 -14 -15
5 6 4 0 0 3 6 4 2 3 5 2 3 3 1 -0 -3 -4 -5 -5 -5 -5 -5 -5 -7 -6 -6 -4 -1 -1 -1 0 0 0 0 -0 -2 -8 -5 -3 -13 -16 -14 -15
6 6 5 -1 2 5 3 2 2 3 4 2 2 1 0 0 -0 -2 -3 -4 -4 -5 -2 -2 -1 -1 -1 -1 -1 0 -0 -0 -0 -2 -8 -8 -1 -4 -14 -16 -15 -14 -16 -21
3 3 -1 1 2 2 1 1 1 2 5 4 2 -0 -2 -2 -1 -0 -0 -1 -0 -0 -1 -1 -1 -0 -0 -0 -0 -0 -1 -5 -8 -5 -1 -8 -15 -16 -17 -15 -14 -20 -23 -23
5 3 3 2 1 1 0 0 0 2 5 4 3 1 -3 -4 -4 -3 -1 -0 -0 -0 -0 -1 -0 -0 -0 -1 -3 -5 -9 -5 -3 -8 -14 -16 -17 -16 -14 -18 -23 -23 -25 -27
3 2 2 2 1 1 0 -0 -0 2 4 3 3 2 1 -2 -6 -6 -5 -5 -4 -5 -4 -4 -4 -5 -9 -9 -9 -4 -3 -9 -13 -16 -18 -17 -14 -16 -21 -22 -23 -26 -29 -28
4 1 2 2 1 1 -0 -1 -0 1 1 1 0 -0 -2 -2 -3 -4 -4 -6 -8 -7 -7 -9 -9 -9 -9 -8 -7 -7 -9 -14 -17 -18 -15 -14 -21 -22 -23 -25 -28 -29 -25 -20
1 1 1 2 1 0 -0 -1 -1 -1 -0 -1 -2 -2 -3 -5 -6 -6 -4 -4 -5 -7 -8 -9 -9 -9 -10 -9 -9 -11 -16 -18 -17 -13 -17 -22 -22 -23 -26 -28 -27 -24 -22 -20
2 2 2 2 1 0 -0 -1 -1 -1 -2 -1 -2 -3 -4 -5 -6 -6 -7 -9 -9 -9 -10 -9 -9 -9 -9 -10 -14 -18 -18 -15 -13 -19 -22 -22 -24 -27 -29 -27 -25 -23 -21 -19
2 2 2 2 1 0 -1 -1 -1 -2 -3 -3 -4 -3 -4 -5 -6 -7 -9 -9 -9 -9 -9 -9 -8 -9 -12 -16 -18 -18 -14 -14 -21 -22 -22 -25 -28 -28 -25 -23 -22 -21 -20 -19
2 2 1 1 1 -0 -1 -2 -1 -2 -3 -3 -4 -4 -4 -5 -6 -7 -9 -9 -8 -9 -8 -7 -7 -11 -15 -18 -17 -13 -15 -21 -22 -22 -25 -28 -27 -25 -24 -23 -21 -19 -18 -18
3 2 1 1 0 -1 -1 -1 -0 -2 -3 -4 -3 -4 -5 -6 -7 -8 -9 -9 -8 -8 -7 -7 -8 -14 -18 -17 -12 -16 -21 -22 -23 -26 -28 -27 -25 -24 -23 -21 -20 -19 -18 -17
2 2 2 2 1 -0 -1 -1 -2 -2 -2 -3 -3 -4 -5 -6 -6 -8 -8 -8 -8 -7 -9 -10 -14 -17 -16 -12 -17 -21 -22 -23 -25 -28 -28 -26 -25 -23 -21 -19 -19 -18 -18 -17
2 3 2 1 1 -0 -1 -1 -2 -2 -2 -3 -3 -4 -5 -6 -6 -7 -7 -7 -6 -7 -11 -15 -17 -15 -12 -17 -21 -22 -22 -24 -27 -28 -27 -26 -23 -21 -20 -19 -18 -18 -17 -17
2 1 1 2 4 3 1 -1 -1 -2 -2 -3 -3 -4 -6 -6 -6 -6 -6 -6 -7 -9 -12 -17 -16 -12 -16 -21 -22 -22 -23 -26 -28 -27 -26 -24 -21 -20 -19 -18 -18 -18 -17 -17
0 1 1 1 3 2 0 -1 -1 -2 -2 -3 -4 -4 -5 -6 -6 -6 -7 -7 -10 -13 -16 -16 -12 -14 -20 -21 -22 -23 -25 -28 -28 -27 -24 -22 -20 -19 -18 -18 -18 -17 -17 -17
-0 0 0 0 0 0 -1 -2 -2 -3 -3 -4 -5 -5 -5 -6 -6 -6 -7 -8 -11 -15 -16 -14 -13 -19 -21 -21 -22 -24 -28 -28 -28 -25 -22 -20 -19 -19 -19 -18 -18 -17 -17 -17
-0 -0 -0 -0 -1 -1 -1 -2 -3 -4 -4 -5 -5 -5 -6 -7 -7 -7 -8 -10 -12 -15 -15 -12 -16 -21 -21 -22 -22 -26 -28 -28 -26 -23 -21 -20 -19 -19 -18 -18 -18 -17 -17 -17
-0 -1 -1 -1 -1 -2 -2 -3 -4 -5 -5 -6 -6 -6 -7 -7 -7 -7 -9 -11 -14 -15 -13 -14 -19 -21 -21 -22 -23 -28 -28 -28 -24 -21 -20 -19 -19 -18 -18 -18 -18 -17 -17 -17
-1 -1 -1 -2 -2 -3 -3 -4 -5 -6 -6 -6 -7 -7 -7 -8 -8 -8 -9 -12 -15 -14 -12 -17 -21 -21 -21 -22 -26 -29 -29 -27 -23 -21 -20 -19 -19 -18 -18 -17 -17 -18 -18 -17
-1 -1 -2 -3 -3 -3 -4 -5 -6 -6 -7 -7 -7 -7 -7 -8 -8 -9 -10 -14 -14 -12 -14 -19 -21 -21 -21 -23 -28 -29 -28 -25 -22 -20 -19 -19 -18 -18 -18 -17 -17 -15 -15 -14
-2 -2 -2 -2 -3 -4 -4 -5 -6 -7 -7 -7 -8 -8 -8 -8 -8 -10 -12 -14 -13 -13 -17 -20 -21 -21 -21 -26 -29 -29 -26 -23 -21 -20 -19 -19 -18 -18 -18 -16 -13 -11 -11 -12

GFSNGP_850_dewp_048.txt.gz
Dewpoint
2 2 2 1 2 2 1 2 3 2 2 1 1 2 3 4 5 5 4 4 4 3 2 3 4 4 3 5 6 7 8 8 7 7 6 6 6 4 3 2 1 -1 -2 -1
0 1 2 2 2 2 2 2 3 2 3 1 1 4 4 3 2 2 2 4 4 3 4 4 4 4 4 4 4 4 4 5 5 4 4 4 2 1 -1 -2 -2 -2 -1 -0
1 1 3 4 3 3 3 2 3 5 3 3 4 5 3 1 -1 -1 1 4 4 3 3 3 3 2 3 3 3 2 2 1 1 3 2 0 -2 -3 -2 -1 -1 -1 -1 -2
1 1 4 2 1 2 2 2 3 4 4 3 4 4 1 -1 -3 -3 -3 -1 1 0 -0 0 1 1 2 1 2 2 1 -1 -2 -2 -3 -5 -4 -2 -1 -1 -1 0 0 -0
4 4 2 3 3 3 4 4 4 4 3 4 3 4 2 1 -4 -4 -3 -3 -3 -3 -2 -0 1 0 -1 -1 -1 -1 -3 -4 -5 -4 -3 -1 -0 -0 -0 -0 0 0 -2 -4
5 4 5 2 0 1 1 5 3 3 3 5 3 6 3 0 -4 -5 -4 -4 -3 -2 -2 -2 -3 -3 -2 -4 -5 -5 -5 -3 -0 0 0 -0 -1 -0 -1 -1 -3 -3 -4 -14
4 5 4 -0 -1 3 5 4 2 3 4 3 4 3 1 -1 -3 -4 -5 -5 -5 -5 -5 -5 -5 -6 -6 -6 -3 -1 -0 -1 -1 -1 -0 -0 -0 0 -1 -2 -7 -14 -15 -14
5 6 4 -1 2 5 3 2 2 2 4 3 2 1 1 0 -1 -3 -4 -5 -5 -4 -5 -6 -7 -7 -4 -1 -1 -1 -1 -0 -0 -0 -0 -0 -0 -3 -10 -14 -15 -14 -15 -19
4 3 -1 -1 2 2 2 1 1 2 4 3 2 1 -0 0 0 -1 -1 -1 -1 -2 -2 -2 -2 -1 -0 -1 -0 -0 -0 -1 -1 -1 -2 -7 -13 -15 -15 -15 -14 -19 -22 -22
3 2 1 1 2 1 0 -0 0 1 4 4 3 0 -1 -0 0 0 0 0 -0 -1 -1 -1 -0 -0 0 -0 -1 -1 -2 -4 -2 -10 -14 -15 -16 -15 -14 -16 -22 -22 -24 -27
3 2 2 2 1 1 1 -0 -0 2 4 4 3 1 -1 -2 -1 0 0 1 1 0 -0 -0 -0 -0 -1 -4 -6 -6 -5 -7 -12 -15 -17 -17 -15 -14 -20 -22 -23 -26 -28 -24
4 1 2 2 1 1 1 -0 -0 1 3 4 3 2 -0 -2 -3 -2 -0 -0 -0 -1 -0 -0 -2 -7 -8 -8 -6 -4 -9 -12 -16 -18 -17 -14 -18 -22 -22 -25 -27 -26 -23 -18
2 2 1 1 2 1 0 -0 -0 -0 1 1 1 1 1 -2 -4 -5 -5 -5 -4 -4 -5 -6 -7 -6 -7 -7 -8 -9 -11 -16 -18 -14 -15 -22 -22 -24 -26 -26 -25 -22 -21 -20
3 3 2 2 2 1 0 -0 -1 -1 -1 -1 -1 -1 -1 -0 -3 -3 -4 -6 -5 -6 -6 -8 -7 -8 -9 -9 -10 -15 -18 -16 -14 -21 -22 -23 -25 -27 -27 -25 -24 -22 -21 -20
2 2 2 2 2 1 -0 -1 -1 -1 -2 -2 -2 -3 -3 -1 -5 -5 -4 -4 -6 -7 -8 -8 -9 -8 -9 -13 -17 -18 -14 -17 -22 -22 -24 -26 -27 -27 -25 -24 -23 -21 -20 -19
2 2 2 1 1 1 -1 -1 -1 -2 -2 -2 -3 -3 -4 -3 -6 -7 -7 -8 -8 -8 -8 -9 -8 -10 -15 -17 -17 -13 -19 -22 -22 -24 -26 -27 -27 -25 -24 -23 -21 -20 -19 -19
2 2 2 1 1 0 -0 -1 -1 -1 -2 -3 -3 -3 -5 -5 -6 -8 -9 -9 -9 -9 -9 -8 -10 -15 -17 -16 -13 -19 -22 -22 -23 -25 -28 -27 -26 -25 -23 -21 -20 -19 -19 -18
1 1 2 2 2 1 -1 -2 -1 -1 -1 -2 -2 -3 -4 -5 -6 -8 -9 -10 -10 -9 -9 -10 -14 -17 -16 -13 -19 -21 -22 -22 -24 -28 -28 -27 -26 -23 -21 -20 -20 -19 -19 -18
2 2 2 2 2 1 0 -1 -1 -2 -1 -2 -2 -4 -5 -6 -7 -9 -9 -10 -9 -8 -9 -13 -17 -16 -13 -17 -21 -21 -22 -24 -27 -28 -27 -26 -23 -21 -20 -19 -19 -19 -19 -19
1 1 1 2 2 1 -0 -0 -1 -1 -2 -2 -3 -4 -5 -7 -8 -8 -8 -8 -7 -7 -10 -14 -17 -14 -14 -20 -21 -21 -23 -25 -29 -28 -27 -24 -22 -20 -20 -19 -19 -19 -19 -18
1 1 1 2 3 4 4 3 2 -0 -2 -2 -2 -3 -4 -6 -7 -7 -7 -7 -7 -9 -13 -17 -15 -13 -18 -21 -21 -22 -23 -28 -29 -28 -25 -22 -21 -20 -20 -19 -19 -19 -19 -18
-0 -0 -0 0 1 1 2 1 -1 -2 -2 -2 -3 -4 -5 -6 -7 -7 -7 -6 -8 -11 -15 -16 -13 -15 -20 -21 -21 -22 -25 -29 -29 -27 -24 -22 -20 -20 -20 -19 -19 -19 -18 -18
-0 -0 -0 -0 -0 -0 -1 -1 -2 -3 -3 -3 -3 -4 -5 -5 -6 -6 -7 -8 -10 -12 -16 -15 -12 -18 -21 -21 -21 -23 -28 -29 -29 -26 -23 -21 -20 -20 -19 -19 -19 -18 -18 -18
-1 -0 -1 -1 -1 -1 -2 -2 -3 -3 -4 -4 -4 -5 -5 -6 -6 -7 -7 -8 -10 -14 -16 -13 -14 -19 -21 -21 -22 -24 -29 -29 -28 -24 -22 -21 -20 -20 -19 -19 -18 -18 -17 -18
-2 -1 -1 -1 -2 -2 -3 -3 -4 -4 -5 -5 -6 -6 -6 -6 -7 -8 -8 -9 -11 -15 -15 -12 -16 -20 -21 -21 -22 -27 -30 -30 -27 -23 -22 -21 -20 -19 -19 -18 -18 -18 -17 -16
-3 -3 -1 -1 -2 -3 -4 -4 -4 -5 -5 -6 -6 -7 -7 -7 -8 -8 -8 -9 -12 -15 -14 -12 -17 -21 -21 -21 -23 -29 -30 -29 -26 -23 -21 -21 -20 -19 -19 -18 -17 -14 -12 -12
-4 -3 -3 -2 -2 -2 -3 -4 -5 -5 -6 -7 -7 -7 -7 -8 -8 -8 -8 -9 -13 -15 -13 -14 -19 -21 -21 -21 -24 -30 -30 -28 -24 -22 -21 -20 -20 -19 -19 -18 -15 -12 -11 -11

GFSNGP_850_dewp_054.txt.gz
Dewpoint
1 -0 1 1 1 1 -1 -0 -0 -1 1 -1 -2 -2 -2 3 2 0 -0 -0 3 2 2 3 3 3 3 3 3 4 4 5 5 5 6 5 6 6 6 6 6 6 5 1
-0 0 1 2 2 1 1 1 1 1 2 -2 -2 -0 4 3 1 -1 -2 -4 0 -2 -0 1 1 1 2 2 2 2 3 4 4 4 4 4 4 3 3 3 2 1 -0 -1
1 0 2 2 2 1 1 1 1 3 0 -1 1 4 4 2 1 -3 -3 -3 -3 -3 -1 -0 0 1 1 2 1 1 0 0 0 1 2 1 1 0 -0 -0 -1 -2 -2 -2
3 1 3 -1 -0 -0 0 -1 0 -0 -1 -1 2 4 3 2 -0 -4 -3 -2 -3 -4 -1 0 0 1 2 1 1 0 -0 1 0 0 0 0 -0 -2 -4 -3 -3 -1 -1 -0
3 2 1 2 3 2 2 3 0 0 -0 2 4 3 3 2 -1 -3 -3 -3 -3 -3 -2 -1 -1 -1 -1 -0 -0 -1 -1 -1 -1 -0 -1 -0 -1 -1 -1 -1 -1 -1 -1 -1
4 3 4 -0 -0 2 1 4 1 2 2 3 3 5 4 1 -2 -3 -4 -4 -3 -3 -4 -3 -2 -3 -4 -4 -3 -2 -2 -2 -2 -1 -1 -1 -1 -1 -1 -1 -1 -1 -0 -2
4 4 2 -1 -1 2 6 3 2 2 2 3 4 3 2 1 -1 -3 -4 -4 -4 -4 -4 -5 -5 -5 -5 -4 -3 -3 -3 -2 -2 -1 -1 -1 -1 -1 -1 -0 -2 -12 -15 -15
3 5 4 -1 2 5 2 2 2 1 1 3 3 3 2 1 -0 -1 -2 -3 -4 -5 -5 -6 -6 -5 -1 -1 -1 -1 -1 -1 -1 -2 -2 -2 -1 -7 -14 -15 -15 -14 -15 -18
2 1 -2 -1 1 0 1 1 1 0 1 2 3 2 2 1 0 -0 -1 -1 -2 -4 -6 -5 -2 -1 -1 -1 -1 -1 -1 -1 -2 -2 -9 -15 -15 -15 -15 -14 -16 -20 -21 -22
3 2 1 1 1 2 1 1 1 0 0 2 4 3 2 1 1 1 -0 -0 -1 -2 -1 -1 -1 -1 -1 -1 -1 -1 -1 -4 -12 -15 -16 -16 -15 -14 -17 -21 -22 -23 -25 -26
2 2 1 1 1 1 1 1 1 0 0 1 4 3 2 2 1 1 -0 0 0 0 0 -0 -1 -1 -1 -1 -2 -4 -11 -14 -16 -16 -16 -15 -16 -20 -22 -23 -26 -27 -25 -24
4 2 1 1 1 1 1 1 1 0 0 2 4 4 2 1 1 2 0 0 0 -0 -1 -1 -1 -3 -4 -4 -5 -9 -13 -16 -17 -16 -14 -19 -21 -22 -23 -25 -26 -25 -25 -24
2 2 2 2 2 2 1 1 1 -0 -0 2 3 4 2 1 1 1 1 0 0 0 -0 -2 -5 -5 -5 -6 -8 -11 -15 -18 -16 -15 -21 -22 -23 -24 -26 -27 -26 -25 -24 -23
2 2 2 2 2 2 1 1 1 0 -0 1 3 3 3 1 1 1 1 -0 -0 -0 -2 -5 -6 -6 -7 -8 -10 -13 -17 -16 -14 -20 -21 -22 -24 -27 -28 -27 -26 -24 -23 -22
1 1 -0 2 1 1 1 1 0 0 -0 -0 1 2 2 1 -0 1 -1 -2 -2 -3 -5 -6 -6 -7 -7 -8 -12 -16 -17 -14 -18 -21 -22 -24 -27 -28 -28 -27 -24 -23 -22 -21
-1 -1 -1 -0 2 1 1 0 0 -0 -1 -1 -0 -0 0 0 -0 1 -4 -4 -4 -4 -6 -6 -7 -7 -7 -9 -14 -18 -15 -16 -21 -22 -24 -26 -29 -28 -27 -24 -23 -22 -22 -21
-0 -0 0 0 1 2 1 1 0 -1 -1 -1 -1 -1 -1 -1 -1 1 -1 -4 -5 -5 -5 -6 -7 -7 -6 -11 -17 -17 -14 -20 -21 -23 -25 -29 -29 -27 -25 -23 -23 -22 -21 -21
-0 0 1 1 1 1 1 2 1 -1 -1 -1 -1 -2 -2 -2 -1 0 -2 -2 -4 -5 -6 -6 -7 -7 -7 -13 -17 -14 -18 -21 -22 -23 -27 -29 -28 -26 -24 -22 -22 -21 -21 -20
0 1 1 1 2 2 2 2 2 -0 -2 -1 -2 -2 -2 -2 -1 -2 -5 -4 -4 -6 -6 -7 -7 -6 -9 -16 -15 -15 -20 -21 -23 -24 -28 -29 -28 -25 -23 -22 -22 -21 -21 -20
0 1 1 2 2 1 1 1 0 -1 -1 -1 -1 -0 -0 -0 -2 -4 -5 -6 -6 -7 -8 -7 -7 -7 -11 -17 -14 -18 -21 -22 -23 -25 -29 -28 -27 -24 -22 -21 -21 -21 -20 -20
-1 -0 1 1 2 2 1 -1 -2 -1 0 -1 -1 0 -0 -2 -3 -4 -5 -6 -7 -8 -8 -8 -7 -8 -15 -16 -15 -20 -21 -22 -23 -26 -29 -28 -26 -23 -22 -21 -21 -20 -20 -19
-2 -1 -1 -1 0 1 1 2 2 2 2 -1 -2 -2 -2 -3 -4 -4 -6 -7 -8 -8 -8 -8 -7 -10 -16 -14 -16 -20 -21 -22 -23 -27 -29 -28 -26 -23 -22 -21 -20 -20 -19 -19
-4 -3 -2 -1 -1 -2 -2 -1 1 1 0 -1 -2 -2 -2 -3 -3 -4 -5 -6 -8 -8 -8 -7 -8 -12 -16 -14 -17 -21 -21 -22 -23 -28 -29 -29 -25 -23 -22 -21 -20 -20 -19 -19
-10 -7 -4 -3 -2 -2 -2 -2 -3 -3 -3 -2 0 -1 -1 -3 -3 -4 -5 -7 -7 -7 -8 -7 -9 -13 -16 -14 -17 -21 -21 -22 -23 -28 -29 -28 -25 -23 -22 -21 -20 -20 -19 -18
-14 -13 -11 -7 -4 -2 -2 -2 -2 -3 -3 -4 -4 -4 -4 -3 -3 -4 -5 -6 -7 -7 -7 -8 -10 -14 -15 -14 -17 -21 -21 -22 -23 -29 -29 -28 -24 -22 -21 -20 -20 -20 -19 -16
-18 -16 -15 -11 -6 -4 -3 -2 -2 -3 -4 -4 -5 -5 -5 -5 -5 -6 -6 -7 -7 -7 -7 -8 -10 -14 -15 -14 -17 -21 -21 -21 -23 -29 -30 -27 -23 -22 -21 -20 -20 -20 -18 -14
-21 -20 -19 -17 -12 -7 -5 -3 -3 -2 -3 -4 -5 -6 -6 -7 -6 -6 -7 -7 -8 -7 -7 -9 -10 -13 -15 -14 -17 -21 -21 -21 -24 -30 -30 -25 -22 -21 -21 -20 -20 -19 -15 -13

GFSNGP_850_dewp_057.txt.gz
Dewpoint
1 -0 1 1 2 1 -0 -0 1 -1 -0 -2 -3 -2 -2 3 2 1 0 -1 -1 0 1 1 1 2 2 3 3 3 3 3 4 4 4 5 6 5 5 5 4 5 5 4
-0 0 1 2 2 1 1 1 0 0 1 -2 -2 -2 3 3 1 -1 -2 -3 -1 -1 0 0 1 2 3 3 3 2 2 2 1 2 2 2 1 2 2 2 2 2 1 -0
2 1 1 3 2 2 1 1 1 2 0 -2 -0 1 4 2 1 -2 -3 -2 -2 -2 -1 -0 1 2 2 2 2 2 1 0 -1 -1 -0 -0 -0 0 0 -0 -2 -2 -2 -1
3 0 2 -2 -1 -0 1 -0 0 0 -1 -1 -1 3 3 2 1 -2 -3 -2 -2 -2 -2 -1 -0 0 0 0 0 1 1 0 -0 -1 -1 -1 -2 -1 -1 -2 -2 -2 -1 -1
2 2 -0 2 2 1 2 3 -1 -1 -1 -1 2 4 3 3 -0 -2 -3 -3 -3 -3 -2 -2 -2 -2 -2 -3 -1 -1 -1 -1 -1 -1 -1 -2 -2 -2 -2 -2 -1 -1 -1 -1
2 3 3 -1 -0 1 1 5 0 -0 1 2 4 4 3 1 -0 -2 -3 -4 -4 -3 -3 -3 -3 -5 -5 -4 -2 -2 -2 -2 -1 -1 -1 -1 -2 -2 -2 -1 -1 -2 -2 -2
2 3 0 -2 -2 0 7 4 1 2 2 2 4 3 2 1 -0 -1 -3 -3 -4 -3 -4 -4 -5 -5 -3 -2 -2 -2 -2 -2 -2 -2 -1 -1 -1 -1 -1 -1 -5 -13 -15 -16
2 3 2 -2 2 5 3 2 1 1 1 2 3 3 2 1 0 -1 -2 -3 -4 -4 -5 -5 -4 -1 -1 -1 -2 -2 -1 -1 -1 -1 -1 -2 -4 -12 -15 -15 -15 -16 -18 -19
0 -0 -3 -1 1 -0 -1 1 1 1 0 2 3 3 2 1 1 0 -1 -2 -4 -4 -5 -2 -1 -1 -1 -2 -2 -2 -1 -1 -2 -6 -14 -16 -15 -15 -15 -18 -21 -22 -23 -24
2 1 -0 0 2 1 2 1 1 1 0 1 2 3 2 2 1 0 -0 -1 -3 -3 -1 -1 -1 -1 -1 -2 -1 -1 -3 -10 -15 -16 -16 -15 -15 -19 -21 -22 -24 -26 -26 -25
2 1 1 1 3 1 1 1 1 1 0 0 2 3 2 2 1 0 0 -0 -0 -0 -0 -0 -0 -1 -1 -1 -2 -8 -13 -16 -17 -16 -15 -18 -20 -21 -23 -25 -27 -27 -25 -24
5 1 2 1 1 2 2 2 1 1 0 0 2 3 2 2 2 1 0 0 0 0 -0 -0 -1 -1 -2 -4 -8 -12 -16 -17 -16 -14 -19 -21 -22 -24 -25 -27 -26 -26 -25 -24
2 2 2 2 2 2 2 1 1 1 0 0 2 3 3 2 2 2 0 0 0 -0 -1 -1 -3 -4 -5 -7 -10 -13 -17 -17 -14 -17 -21 -22 -24 -26 -27 -26 -26 -24 -23 -22
-0 2 2 2 2 2 2 2 1 1 0 0 2 3 3 2 1 2 1 0 0 0 -1 -3 -4 -5 -6 -8 -10 -14 -17 -16 -15 -21 -22 -24 -25 -28 -27 -27 -25 -23 -22 -22
0 1 0 -0 -1 1 1 1 1 1 0 -0 1 3 3 2 1 1 2 0 -0 -0 -2 -4 -5 -6 -6 -8 -11 -16 -18 -14 -20 -21 -22 -24 -27 -28 -28 -25 -24 -23 -22 -22
-1 -1 -1 -0 -0 0 1 1 1 1 -0 -1 -0 1 2 2 1 0 2 -0 -0 -1 -2 -5 -6 -7 -6 -8 -12 -17 -16 -16 -21 -22 -23 -25 -29 -29 -27 -24 -24 -23 -22 -22
-1 -1 -1 -0 0 0 1 1 1 1 0 -1 -1 -1 -0 0 -0 -1 1 -1 -2 -3 -4 -5 -6 -7 -6 -8 -14 -17 -14 -17 -21 -22 -23 -27 -29 -29 -26 -24 -23 -23 -22 -21
-0 -0 0 0 1 1 1 1 1 2 2 -1 -2 -1 -1 -1 -1 0 0 -3 -5 -6 -7 -7 -7 -7 -7 -8 -14 -17 -14 -19 -21 -22 -24 -29 -29 -28 -26 -24 -23 -22 -21 -21
-0 0 0 1 1 1 1 2 1 1 2 -1 -2 -1 -2 -2 -2 -1 1 -0 -2 -5 -6 -7 -8 -8 -7 -8 -14 -17 -15 -20 -21 -22 -24 -29 -29 -28 -25 -23 -22 -22 -21 -21
-0 0 0 1 1 2 0 0 1 1 -0 -2 -2 -2 -3 -3 -3 -1 -0 -0 -2 -2 -5 -7 -8 -8 -7 -9 -14 -16 -15 -20 -21 -22 -25 -29 -30 -28 -25 -23 -22 -22 -21 -21
-1 -1 -1 0 1 1 2 -1 -2 -2 -2 -2 -2 -2 -1 0 0 -0 -1 -3 -5 -5 -6 -8 -8 -8 -7 -9 -15 -15 -16 -20 -21 -22 -25 -29 -30 -29 -25 -23 -22 -21 -21 -20
-3 -2 -2 -1 -1 -1 1 1 2 2 2 1 -2 -2 -2 -1 -2 -3 -4 -4 -5 -6 -8 -8 -8 -8 -8 -9 -16 -15 -17 -21 -21 -22 -24 -29 -30 -29 -25 -23 -22 -21 -21 -20
-10 -8 -5 -3 -2 -2 -2 -2 -1 1 1 1 1 -1 -3 -4 -3 -4 -3 -4 -5 -7 -8 -8 -8 -8 -8 -10 -16 -15 -17 -21 -21 -22 -24 -30 -30 -28 -25 -23 -22 -21 -21 -20
-15 -14 -13 -9 -5 -3 -2 -2 -2 -2 -2 -2 -2 0 -0 -0 -1 -3 -4 -5 -6 -7 -8 -9 -9 -8 -8 -11 -15 -15 -17 -20 -21 -21 -23 -29 -30 -28 -25 -23 -22 -21 -20 -20
-18 -18 -17 -15 -11 -8 -5 -3 -3 -3 -3 -3 -4 -4 -4 -3 -2 -4 -3 -1 -4 -7 -8 -9 -9 -9 -9 -12 -15 -14 -16 -20 -21 -21 -23 -29 -30 -28 -24 -22 -21 -21 -20 -20
-24 -23 -22 -20 -17 -13 -9 -6 -4 -3 -3 -3 -4 -4 -5 -5 -5 -4 -4 -4 -3 -7 -8 -9 -8 -8 -8 -12 -15 -14 -16 -20 -21 -21 -23 -29 -30 -27 -23 -21 -21 -21 -20 -18
-22 -21 -20 -19 -19 -19 -17 -14 -9 -6 -4 -3 -3 -3 -5 -5 -6 -6 -5 -4 -5 -5 -7 -8 -7 -5 -9 -12 -15 -14 -16 -20 -21 -21 -23 -29 -29 -25 -22 -21 -21 -21 -18 -14

GFSNGP_850_dewp_060.txt.gz
Dewpoint
1 0 1 2 2 1 3 2 6 -1 -1 -4 -4 -3 -2 1 2 1 -1 -2 -2 -1 -0 -1 -0 1 2 2 2 2 2 2 2 3 3 4 3 4 4 3 3 3 3 3
3 0 1 3 1 2 1 1 1 0 1 -3 -3 -2 0 3 2 -0 -2 -3 -3 -2 -1 -1 1 2 2 2 2 2 2 2 1 2 2 2 2 2 1 2 1 0 0 -0
3 1 1 4 2 2 1 0 1 3 -0 -2 -2 -1 2 3 2 -1 -3 -2 -3 -3 -2 -0 1 1 1 0 1 1 1 1 1 0 -0 1 1 0 1 0 -0 -1 -1 -1
3 1 5 -0 -1 -1 0 -1 -0 -1 -1 -2 -2 2 3 2 0 -2 -3 -2 -3 -4 -2 -1 -1 -1 -2 -2 -1 0 0 1 -0 -0 -0 -1 -1 -1 -1 -2 -2 -2 -2 -1
3 2 -0 1 1 1 2 4 -1 -1 -1 -1 0 4 3 2 -0 -3 -4 -3 -3 -3 -2 -2 -2 -3 -4 -2 -1 -1 -1 -1 -1 -1 -1 -1 -2 -2 -2 -1 -2 -2 -2 -2
3 4 2 2 0 1 -0 6 1 -0 0 1 4 6 4 1 -0 -1 -2 -3 -3 -3 -3 -3 -3 -4 -3 -2 -2 -2 -1 -1 -1 -2 -2 -2 -2 -2 -2 -2 -2 -2 -2 -2
3 3 -0 -3 -2 -1 7 5 2 2 2 2 3 4 3 2 0 -1 -2 -2 -3 -3 -3 -4 -5 -3 -2 -2 -2 -2 -2 -2 -2 -2 -1 -2 -2 -2 -2 -4 -14 -15 -17 -17
1 3 2 -2 2 5 3 2 1 2 2 2 3 3 3 1 0 -0 -1 -2 -3 -3 -4 -5 -2 -1 -2 -2 -1 -2 -2 -2 -2 -2 -2 -4 -10 -15 -15 -16 -18 -20 -20 -20
0 -1 -3 -1 0 0 0 1 1 1 1 1 2 3 2 1 1 0 -0 -2 -3 -4 -5 -1 -1 -1 -1 -1 -1 -1 -1 -2 -3 -12 -16 -15 -15 -16 -20 -21 -22 -23 -24 -25
1 -0 -2 -2 -2 2 2 1 1 1 1 0 2 3 2 2 1 0 -1 -2 -3 -4 -1 -1 -1 -1 -1 -1 -2 -1 -3 -13 -16 -16 -15 -16 -19 -21 -22 -24 -26 -27 -27 -26
1 0 0 1 2 3 2 2 1 1 1 0 1 2 3 2 1 0 -0 -1 -2 -1 -1 -1 -1 -1 -1 -2 -3 -8 -15 -17 -16 -15 -17 -20 -21 -23 -26 -28 -29 -27 -26 -25
1 0 1 2 2 3 2 2 2 1 1 0 1 2 3 2 2 1 0 -0 -0 -1 -0 -0 -1 -1 -1 -3 -9 -14 -17 -17 -15 -16 -21 -22 -23 -25 -29 -29 -28 -27 -26 -24
1 2 2 2 2 2 2 2 1 1 1 0 0 2 2 3 2 1 0 0 -0 -0 -0 -0 -1 -1 -4 -7 -12 -15 -17 -16 -15 -20 -21 -23 -25 -27 -28 -28 -26 -24 -23 -23
1 1 2 2 2 1 1 2 2 1 1 0 0 1 3 3 2 2 1 0 1 -0 -0 -1 -2 -4 -6 -8 -11 -15 -18 -16 -16 -21 -22 -24 -26 -29 -28 -27 -24 -24 -23 -23
0 1 1 1 1 0 -0 1 1 1 1 1 0 1 2 3 2 2 2 1 0 0 -1 -2 -4 -5 -6 -8 -11 -15 -18 -15 -18 -21 -22 -24 -28 -29 -28 -26 -24 -24 -23 -23
-0 0 -0 -1 -0 -0 -0 0 1 1 1 0 0 -0 1 3 2 1 1 1 0 0 -1 -3 -4 -5 -6 -7 -10 -15 -18 -15 -19 -21 -23 -24 -29 -29 -28 -26 -24 -24 -23 -22
-2 -2 -1 -1 -1 -0 -0 0 1 2 1 1 -0 -1 0 2 2 1 0 1 1 0 -0 -2 -4 -6 -6 -7 -9 -15 -18 -15 -19 -21 -23 -24 -29 -29 -28 -26 -24 -23 -23 -22
-1 -1 -0 -0 0 1 1 1 1 1 1 2 0 -1 -1 0 1 1 -0 1 1 0 -1 -1 -5 -6 -7 -7 -9 -14 -17 -15 -20 -21 -23 -24 -29 -30 -28 -26 -24 -23 -23 -22
-0 -0 -0 0 0 1 1 1 1 2 1 1 1 -1 -1 -1 -1 -1 -1 -1 0 -1 -2 -4 -6 -7 -7 -7 -9 -14 -17 -15 -19 -21 -22 -24 -29 -30 -29 -26 -25 -24 -23 -22
-0 -0 0 0 0 1 1 -1 -1 0 1 1 -0 -2 -2 -2 -2 -2 -2 -0 0 -1 -1 -1 -4 -6 -8 -8 -9 -13 -16 -15 -19 -21 -22 -23 -28 -30 -29 -27 -25 -24 -23 -22
-1 -1 -1 -1 1 1 1 1 -2 -2 -2 -2 -3 -2 -2 -3 -3 -3 -2 -1 0 -0 -0 -1 -0 -4 -8 -8 -8 -12 -16 -15 -19 -21 -22 -22 -27 -30 -30 -28 -25 -24 -23 -22
-5 -4 -3 -2 -2 -1 -2 -0 1 1 1 1 0 -1 -0 0 -0 -0 -0 -0 0 -0 -1 -0 -3 -8 -8 -8 -8 -12 -15 -15 -18 -21 -22 -22 -26 -30 -30 -28 -25 -23 -22 -22
-14 -13 -12 -9 -5 -3 -3 -2 -2 -2 -0 1 1 1 -0 -1 -2 -2 -2 -3 -4 -5 -6 -6 -6 -8 -9 -9 -9 -12 -15 -15 -18 -21 -22 -22 -24 -30 -30 -29 -25 -23 -22 -22
-17 -18 -17 -16 -12 -7 -6 -4 -3 -3 -3 -3 -3 -2 -0 -0 -1 -1 -3 -4 -5 -5 -6 -6 -8 -9 -9 -9 -9 -10 -15 -15 -17 -21 -21 -21 -23 -29 -30 -29 -25 -23 -22 -21
-21 -23 -23 -21 -19 -15 -11 -8 -6 -4 -3 -3 -4 -4 -4 -4 -3 -1 -0 -1 -1 -2 -6 -8 -9 -9 -10 -9 -9 -10 -15 -15 -17 -20 -21 -21 -23 -28 -31 -29 -25 -22 -22 -21
-26 -26 -24 -23 -23 -22 -21 -19 -15 -8 -6 -4 -3 -3 -4 -5 -5 -5 -5 -4 -3 -1 -5 -8 -9 -10 -10 -9 -9 -9 -14 -15 -15 -19 -21 -21 -22 -27 -30 -28 -24 -22 -22 -21
-24 -23 -22 -20 -19 -19 -19 -20 -20 -19 -14 -9 -7 -4 -4 -4 -5 -6 -6 -6 -5 -4 -2 -5 -9 -10 -9 -6 -7 -9 -13 -15 -15 -19 -21 -21 -21 -27 -30 -26 -23 -22 -22 -20

GFSNGP_850_dewp_063.txt.gz
Dewpoint
-0 -0 1 2 2 2 4 3 7 -0 -2 -4 -4 -4 -2 -0 3 2 0 -1 -2 -1 -1 -0 0 1 1 1 2 2 2 1 1 2 2 3 3 3 4 2 3 3 3 3
4 0 1 3 1 1 2 2 1 0 0 -4 -4 -3 -1 1 3 2 -0 -2 -3 -2 -2 -0 0 1 1 1 1 1 1 0 0 1 2 2 2 2 2 2 1 1 0 -0
2 0 1 4 2 1 1 0 1 3 -1 -3 -2 -2 -0 3 3 2 -1 -2 -2 -3 -2 -1 -0 0 -0 -0 -0 0 1 0 0 0 1 1 1 0 0 -0 -0 -1 -1 -1
3 2 5 2 -1 -1 0 -0 -1 -1 -2 -3 -2 -1 3 3 3 0 -2 -2 -3 -3 -3 -2 -1 -1 -1 -2 -1 -0 0 0 -0 -0 -0 -1 -1 -1 -2 -2 -2 -1 -1 -1
4 2 -0 -2 -0 0 2 3 -1 -1 -2 -2 -1 3 4 2 0 -1 -2 -3 -3 -3 -2 -2 -2 -2 -2 -1 -1 -1 -1 -1 -1 -1 -1 -2 -2 -1 -1 -2 -2 -2 -2 -2
3 4 3 3 1 -0 -1 6 2 -0 -0 1 2 6 5 2 -0 -2 -3 -3 -3 -3 -2 -2 -3 -3 -2 -2 -1 -1 -1 -1 -2 -2 -2 -2 -2 -2 -2 -2 -2 -2 -3 -9
3 3 1 -3 1 -1 6 6 2 2 2 2 3 4 3 2 0 -1 -2 -2 -2 -2 -3 -3 -4 -3 -2 -2 -1 -1 -2 -1 -2 -2 -2 -2 -2 -2 -6 -13 -15 -17 -19 -18
1 3 3 -3 1 2 4 2 1 2 2 2 3 3 3 2 1 -0 -1 -1 -2 -2 -3 -4 -2 -2 -2 -1 -2 -2 -2 -1 -2 -2 -3 -9 -14 -15 -16 -19 -20 -21 -22 -24
-0 -0 -3 -1 1 0 1 2 2 2 2 2 3 2 2 2 1 0 -1 -1 -2 -2 -4 -2 -1 -1 -1 -1 -1 -2 -2 -2 -7 -14 -16 -15 -16 -19 -21 -22 -23 -25 -26 -26
-0 -1 -2 -3 -1 1 3 2 1 1 1 1 3 2 2 2 2 1 -0 -1 -2 -3 -3 -1 -1 -1 -1 -1 -1 -2 -4 -14 -16 -16 -15 -18 -21 -22 -23 -25 -25 -25 -26 -24
-0 -1 -0 2 1 2 3 3 2 1 1 1 2 3 2 2 2 1 -0 -1 -2 -3 -1 -1 -1 -1 -1 -1 -2 -5 -15 -17 -16 -15 -18 -21 -22 -24 -27 -30 -30 -28 -27 -26
1 -1 -1 1 3 3 3 3 2 1 1 1 0 2 2 2 2 2 -0 -1 -1 -1 -1 -1 -1 -1 -1 -3 -6 -13 -17 -17 -15 -17 -21 -22 -24 -27 -30 -30 -29 -28 -27 -27
-0 2 2 2 2 2 2 2 1 1 1 1 1 1 2 2 2 2 1 -0 -0 -0 -1 -1 -1 -1 -2 -5 -11 -15 -17 -17 -15 -19 -21 -23 -25 -28 -30 -30 -28 -27 -27 -26
1 1 1 2 2 1 1 1 2 1 1 1 0 1 1 2 2 2 2 1 -0 -0 -0 -0 -1 -1 -3 -6 -11 -15 -17 -17 -15 -20 -22 -23 -25 -29 -30 -29 -27 -26 -26 -25
0 1 1 1 1 1 1 0 0 1 1 1 1 1 1 1 2 3 2 1 0 0 -0 -1 -1 -1 -3 -7 -10 -14 -17 -17 -15 -19 -22 -23 -25 -30 -30 -30 -27 -26 -25 -25
0 0 0 0 0 0 -0 -0 -0 0 0 0 0 0 0 1 1 2 2 2 1 1 0 -1 -2 -3 -4 -6 -8 -12 -16 -18 -15 -19 -21 -23 -24 -30 -30 -30 -27 -26 -25 -25
-1 -0 -1 -2 -1 -1 -0 0 0 0 0 1 1 1 -0 0 1 2 2 1 1 1 1 1 -2 -3 -4 -6 -7 -9 -14 -18 -15 -18 -21 -22 -24 -29 -30 -30 -28 -26 -25 -24
-2 -2 -1 -1 -0 -0 0 1 1 1 1 1 1 1 -0 -1 0 1 2 1 1 1 1 1 -0 -3 -5 -6 -7 -8 -11 -17 -16 -16 -21 -22 -23 -27 -30 -30 -29 -27 -25 -24
-1 -1 0 0 0 0 1 1 1 -0 0 1 1 1 1 -1 -1 -0 0 1 0 0 1 1 1 -1 -4 -6 -7 -7 -10 -15 -17 -16 -20 -22 -23 -25 -29 -30 -29 -27 -26 -25
-0 -0 -0 -0 -0 0 0 0 -2 -2 -1 1 1 1 0 -1 -2 -1 -1 -1 -0 -0 0 1 0 -0 -3 -7 -8 -7 -8 -13 -16 -16 -19 -21 -22 -23 -28 -30 -29 -28 -26 -25
-1 -1 -1 -1 -0 -0 0 0 0 -2 -3 -2 -1 -2 -3 -2 -3 -2 -1 -2 -2 -1 -0 -0 -0 -0 -1 -4 -8 -8 -8 -11 -16 -16 -18 -21 -22 -22 -26 -29 -30 -29 -27 -25
-7 -6 -6 -4 -3 -3 -3 -3 -2 -0 0 1 -0 -1 -1 -0 -1 -1 -2 -2 -2 -1 -0 -0 -1 -1 -0 -1 -2 -8 -8 -10 -15 -16 -17 -20 -22 -22 -24 -28 -30 -30 -28 -25
-14 -15 -16 -15 -11 -7 -5 -4 -3 -3 -3 -2 -0 0 0 -0 0 0 1 0 -0 -0 -0 -0 -0 -1 -1 -1 -4 -9 -9 -9 -13 -15 -16 -20 -21 -22 -22 -26 -30 -30 -28 -25
-16 -19 -21 -22 -19 -15 -12 -10 -7 -5 -3 -3 -3 -4 -3 -1 -0 -0 -0 -1 -1 -3 -4 -4 -3 -3 -4 -6 -8 -9 -9 -10 -12 -15 -16 -19 -21 -21 -22 -24 -29 -30 -29 -24
-16 -23 -27 -26 -25 -24 -23 -22 -18 -11 -7 -4 -3 -4 -4 -5 -5 -4 -3 -1 -1 -3 -4 -5 -4 -3 -5 -7 -7 -6 -5 -6 -11 -15 -16 -18 -21 -21 -21 -23 -28 -30 -29 -24
-19 -25 -24 -24 -24 -23 -22 -22 -22 -21 -20 -14 -9 -6 -4 -4 -4 -5 -5 -6 -5 -3 -2 -2 -3 -5 -5 -6 -7 -4 -4 -9 -11 -15 -15 -17 -20 -21 -21 -22 -27 -30 -27 -23
-23 -25 -23 -22 -20 -19 -18 -18 -17 -18 -19 -19 -19 -14 -8 -6 -5 -4 -5 -5 -6 -6 -6 -5 -3 -4 -6 -7 -5 -5 -8 -9 -9 -15 -15 -16 -18 -21 -20 -20 -22 -27 -26 -23

GFSNGP_850_dewp_069.txt.gz
Dewpoint
-0 0 2 2 2 2 1 1 1 0 -1 -2 -3 -3 -4 -3 2 3 2 1 0 -0 -0 -0 -0 0 1 1 1 1 1 1 0 1 1 2 3 3 2 2 2 1 1 1
-1 0 0 2 2 2 2 1 1 1 2 -3 -4 -4 -0 -1 2 2 2 1 -0 -1 -1 -1 -0 0 1 1 1 1 0 0 1 1 1 2 1 1 1 1 -0 -1 -0 -0
2 1 1 1 1 1 2 1 1 2 -0 -2 -2 -1 0 1 2 2 3 2 0 -1 -2 -1 -0 0 1 1 0 -0 0 0 0 1 1 1 0 -0 -1 -1 -1 -1 -1 -1
1 1 1 -3 -0 -0 0 1 1 0 -1 -2 -2 -1 -1 0 2 3 3 1 -1 -2 -2 -2 -1 0 0 -0 -1 -1 -0 0 0 -0 -1 -1 -1 -1 -1 -1 -2 -2 -2 -2
2 2 -1 1 -0 0 2 2 -0 -0 -1 -2 -1 0 1 1 3 3 1 -1 -1 -2 -2 -2 -1 -1 -1 -1 -1 -0 -0 -0 -1 -1 -1 -1 -2 -2 -2 -2 -2 -2 -3 -12
3 3 4 2 -1 -1 -1 5 2 -1 -1 -1 2 2 2 2 2 1 0 -1 -1 -2 -3 -2 -1 -1 -1 -2 -1 -1 -1 -1 -1 -1 -1 -2 -2 -2 -3 -7 -17 -19 -20 -21
3 3 1 -1 1 0 6 4 2 -1 -2 -1 2 1 4 3 1 1 -0 -1 -2 -2 -2 -2 -2 -2 -2 -2 -1 -1 -1 -2 -2 -2 -2 -2 -5 -14 -18 -20 -21 -23 -26 -27
2 4 3 0 -1 3 3 2 2 2 2 2 2 3 4 3 1 1 -0 -1 -1 -1 -2 -2 -2 -2 -3 -1 -1 -1 -1 -1 -2 -2 -4 -12 -16 -19 -21 -22 -24 -26 -26 -27
0 1 -2 -1 0 2 2 2 2 2 2 2 2 3 2 2 2 1 0 -1 -1 -1 -1 -1 -2 -2 -1 -1 -1 -1 -1 -2 -2 -7 -14 -15 -18 -20 -22 -24 -26 -27 -27 -27
-1 -2 -2 -2 0 1 2 2 2 1 1 1 2 2 2 2 2 2 1 -0 -1 -1 -1 -1 -2 -1 -1 -1 -1 -1 -2 -2 -11 -16 -15 -17 -20 -21 -23 -26 -28 -27 -28 -27
-0 -1 -2 -2 -2 0 2 2 1 1 1 1 1 2 2 2 2 2 2 1 -1 -1 -1 -2 -1 -1 -1 -1 -1 -2 -3 -11 -17 -16 -16 -20 -22 -23 -26 -29 -30 -29 -29 -28
1 -1 -1 2 1 -1 1 3 3 3 2 2 1 1 1 2 2 1 2 1 -0 -1 -1 -1 -1 -1 -1 -1 -2 -2 -8 -16 -17 -16 -17 -21 -22 -24 -28 -31 -31 -29 -29 -29
-0 1 1 2 3 3 3 3 3 2 1 1 1 1 1 2 2 1 2 2 1 -0 -1 -1 -1 -1 -1 -1 -2 -3 -10 -16 -17 -16 -17 -20 -21 -23 -26 -28 -30 -30 -28 -28
0 0 1 1 1 2 2 1 1 1 1 1 1 1 1 1 2 2 1 2 2 1 -1 -1 -1 -1 -1 -1 -2 -4 -10 -16 -17 -16 -16 -20 -21 -23 -24 -29 -31 -30 -29 -28
-0 -1 -1 1 2 2 1 1 1 1 0 0 1 1 1 1 1 1 2 1 2 1 -0 -1 -1 -1 -1 -1 -2 -5 -10 -15 -17 -17 -16 -17 -21 -22 -24 -27 -30 -31 -30 -29
1 0 0 1 1 1 0 0 0 0 0 0 -0 0 0 0 1 1 1 1 1 2 2 1 -0 -1 -1 -1 -2 -4 -8 -13 -16 -18 -17 -16 -19 -21 -23 -24 -28 -31 -31 -30
0 0 0 0 -0 -0 -1 -1 -1 -0 -0 -0 -0 -0 0 0 0 1 1 1 1 1 2 1 1 -0 -0 -1 -2 -3 -6 -10 -13 -16 -18 -17 -16 -20 -22 -23 -24 -28 -30 -30
0 0 -0 -0 -1 -1 -1 -0 0 0 0 0 1 1 0 0 0 1 0 0 0 0 1 2 1 0 0 -0 -1 -2 -4 -7 -9 -11 -14 -17 -17 -17 -20 -22 -23 -24 -28 -30
-1 -1 -1 -1 -1 -0 1 1 1 1 1 0 -0 -0 0 1 1 1 0 -0 -0 -0 1 1 1 1 1 1 -0 -1 -3 -5 -6 -8 -10 -14 -17 -16 -17 -20 -22 -23 -25 -28
-1 -0 -0 0 0 0 0 0 0 0 -0 -2 -2 -1 0 1 1 0 -0 -1 -1 -1 -0 0 1 1 1 1 -0 -0 -1 -2 -5 -3 -5 -9 -13 -16 -16 -18 -21 -22 -23 -25
-0 -0 -0 -0 -0 -0 -1 -2 -2 -1 -0 0 -0 -2 -2 -2 -1 -1 -2 -1 -1 -1 -0 -0 -0 -0 -0 -0 -1 -1 -1 -1 -3 -3 -2 -5 -9 -13 -16 -16 -19 -21 -22 -23
-6 -8 -10 -9 -7 -7 -7 -6 -6 -5 -4 -3 -2 -0 -0 -0 -1 -1 -1 -1 -1 -2 -1 -1 -0 -0 -0 -1 -1 -1 -1 -1 -1 -2 -2 -5 -6 -6 -13 -15 -17 -20 -22 -22
-13 -15 -17 -19 -18 -16 -15 -14 -15 -11 -8 -7 -5 -4 -4 -3 -2 -1 -0 -1 -0 -0 -0 -0 -0 -1 -1 -2 -2 -2 -2 -2 -2 -2 -2 -3 -4 -3 -11 -15 -16 -19 -21 -22
-10 -11 -14 -20 -24 -23 -23 -24 -25 -23 -20 -14 -9 -6 -5 -5 -5 -4 -4 -4 -2 -1 -1 -1 -1 -1 -2 -1 -2 -2 -2 -2 -2 -2 -2 -2 -3 -4 -6 -11 -15 -17 -20 -21
-7 -9 -12 -21 -25 -25 -24 -23 -22 -21 -21 -21 -20 -17 -12 -8 -7 -6 -5 -5 -5 -5 -5 -4 -2 -3 -3 -2 -2 -2 -2 -3 -3 -3 -3 -3 -3 -4 -5 -7 -14 -17 -20 -21
-8 -8 -10 -19 -26 -25 -23 -22 -20 -20 -19 -18 -17 -17 -18 -17 -11 -9 -8 -6 -5 -5 -5 -6 -6 -5 -3 -3 -4 -5 -5 -4 -4 -4 -4 -4 -4 -4 -5 -5 -13 -16 -19 -21
-7 -7 -10 -22 -25 -24 -22 -21 -20 -18 -17 -17 -16 -15 -16 -16 -16 -15 -12 -10 -8 -7 -7 -6 -6 -6 -7 -6 -4 -4 -4 -5 -5 -5 -5 -5 -5 -5 -5 -6 -12 -16 -18 -15

GFSNGP_850_dewp_072.txt.gz
Dewpoint
-0 1 1 1 2 2 2 3 4 3 0 -2 -2 -2 -2 -1 1 2 3 3 2 1 0 0 -0 -0 0 0 1 1 1 1 1 0 1 1 2 3 3 2 1 1 1 1
-1 0 0 1 2 2 2 1 1 0 2 -2 -4 -3 -3 -3 -1 0 2 3 2 1 0 -0 -0 -0 0 1 1 1 1 0 0 0 1 2 2 2 1 1 0 -0 -0 -1
0 1 0 1 1 1 2 1 1 2 -1 -2 -2 -4 -3 -3 -2 1 2 2 1 1 0 -1 -1 -0 0 1 1 1 0 -0 0 1 1 1 1 0 -0 -0 -1 -1 -1 -1
1 -0 1 -1 -1 -1 -0 0 0 -0 -2 -3 -2 -3 -4 -2 -1 1 2 2 2 1 -1 -1 -1 -1 -0 1 1 -0 -0 -0 0 0 0 0 -1 -1 -1 -1 -2 -2 -2 -2
2 2 -0 -1 0 0 1 1 -0 -0 -1 -2 -2 -1 1 1 0 0 2 2 1 -0 -1 -2 -2 -1 -0 -0 -0 -1 -1 -0 0 -0 -1 -1 -1 -2 -2 -2 -2 -3 -14 -21
3 3 4 -1 -1 -2 -1 4 0 -1 -1 -1 1 2 0 -1 -1 2 2 1 -0 -1 -2 -2 -2 -1 -1 -1 -1 -1 -0 -0 -1 -1 -1 -2 -2 -2 -2 -7 -17 -18 -21 -25
3 4 1 -2 -1 -0 4 3 2 0 -1 -1 2 -1 -2 -0 1 2 1 0 -1 -2 -2 -2 -2 -2 -1 -1 -2 -1 -1 -1 -1 -1 -2 -2 -2 -9 -17 -20 -21 -24 -27 -27
4 5 3 -1 -0 3 2 2 2 -0 -1 -1 -1 1 2 3 2 1 0 -1 -1 -2 -2 -2 -2 -2 -2 -2 -2 -1 -1 -1 -2 -2 -2 -4 -13 -18 -21 -22 -25 -27 -26 -26
1 1 -3 -1 -1 -1 2 2 2 2 2 2 2 2 3 3 2 1 1 -0 -1 -1 -1 -1 -1 -2 -2 -2 -1 -1 -1 -1 -2 -2 -6 -15 -17 -20 -22 -24 -26 -27 -26 -27
-1 -2 -3 -2 -1 2 2 2 2 2 2 1 1 1 2 2 2 1 1 1 -0 -1 -1 -1 -1 -2 -1 -1 -1 -1 -1 -2 -2 -6 -14 -16 -18 -21 -23 -26 -28 -28 -28 -28
-1 -2 -1 -2 -2 -0 1 2 2 1 1 1 1 2 2 2 2 1 2 2 1 -0 -1 -1 -1 -1 -1 -1 -1 -1 -1 -2 -5 -14 -15 -16 -19 -21 -24 -27 -29 -29 -29 -29
0 -2 -2 -2 -1 -2 1 2 2 2 2 2 2 1 1 2 2 2 1 2 2 1 -1 -1 -1 -1 -1 -1 -1 -1 -2 -3 -13 -16 -16 -17 -20 -22 -24 -28 -30 -31 -30 -29
-1 -0 0 1 1 1 1 2 3 3 3 2 2 1 1 1 2 2 1 1 2 2 -0 -1 -1 -1 -1 -1 -1 -2 -2 -8 -15 -17 -16 -17 -20 -22 -23 -26 -29 -31 -30 -29
-2 0 2 2 1 2 2 2 2 1 1 1 1 1 1 1 1 2 2 1 1 2 1 -1 -1 -1 -1 -1 -2 -2 -2 -7 -15 -17 -16 -16 -19 -20 -21 -23 -27 -30 -30 -30
-0 1 -0 -0 1 1 1 1 1 1 1 1 1 1 1 1 1 1 2 2 1 1 2 1 -1 -1 -1 -1 -1 -1 -2 -6 -13 -16 -17 -16 -16 -19 -21 -23 -24 -29 -30 -30
0 0 0 1 1 1 1 1 1 0 0 0 0 0 0 1 1 1 1 1 2 1 1 2 1 -0 -1 -1 -1 -1 -2 -4 -10 -15 -17 -17 -16 -16 -20 -22 -23 -25 -28 -30
0 0 0 0 0 1 0 -0 -0 -0 -1 -0 -0 -0 0 0 -0 0 1 1 1 1 1 1 2 1 -0 -1 -1 -1 -1 -4 -6 -12 -15 -17 -17 -16 -17 -20 -22 -23 -24 -28
1 1 0 0 0 -0 -0 -1 -1 -1 -0 -0 -0 0 0 0 0 0 0 0 1 1 1 1 1 1 1 0 -0 -0 -1 -2 -3 -7 -12 -14 -16 -17 -16 -17 -20 -21 -23 -24
-0 0 -0 -1 -1 -1 -1 -0 0 1 1 1 0 -0 -0 -0 0 0 1 0 0 0 -0 -0 0 1 1 1 0 0 -0 -1 -2 -4 -8 -11 -13 -15 -17 -16 -17 -19 -21 -22
-1 -1 -1 -0 -0 -0 0 0 0 0 0 0 -0 -2 -2 -0 0 1 1 0 0 -0 -1 -1 -0 0 1 1 0 0 0 -0 -1 -2 -3 -4 -5 -7 -12 -16 -16 -17 -19 -21
-1 -1 -0 -0 -0 -0 -0 -0 -0 -2 -2 -1 -0 -0 -0 -2 -2 -1 -1 -1 -1 -1 -2 -1 -1 -0 -0 0 -0 -0 -1 -1 -1 -1 -2 -3 -3 -3 -3 -7 -14 -16 -17 -20
-2 -4 -5 -8 -7 -7 -7 -8 -9 -8 -7 -5 -4 -3 -2 -1 -0 -0 -1 -1 -2 -2 -2 -2 -1 -0 -0 -0 -0 -1 -1 -1 -2 -2 -2 -2 -2 -3 -3 -3 -5 -15 -16 -18
-12 -14 -15 -16 -16 -16 -16 -18 -21 -18 -14 -12 -9 -7 -6 -5 -4 -4 -2 -1 -1 -1 -1 -1 -1 -1 -1 -1 -1 -2 -2 -2 -2 -2 -2 -2 -2 -3 -3 -2 -3 -5 -15 -16
-11 -11 -13 -16 -21 -22 -23 -24 -24 -23 -23 -21 -19 -16 -13 -9 -6 -6 -5 -5 -5 -5 -4 -2 -1 -1 -1 -2 -2 -2 -2 -3 -3 -3 -3 -3 -3 -3 -3 -3 -3 -4 -8 -15
-8 -10 -10 -15 -20 -24 -24 -23 -21 -20 -19 -19 -18 -19 -19 -20 -16 -12 -10 -8 -6 -5 -5 -5 -5 -4 -2 -2 -3 -3 -3 -3 -3 -4 -4 -4 -4 -4 -4 -4 -4 -4 -5 -10
-8 -8 -7 -9 -19 -25 -23 -22 -21 -20 -19 -18 -17 -16 -16 -16 -17 -16 -14 -12 -11 -9 -7 -6 -6 -6 -6 -5 -4 -3 -3 -4 -5 -4 -4 -4 -4 -4 -4 -5 -5 -4 -5 -6
-7 -7 -6 -7 -18 -25 -24 -23 -22 -20 -19 -18 -17 -16 -16 -16 -16 -15 -15 -15 -14 -13 -11 -9 -8 -7 -6 -6 -6 -6 -5 -4 -4 -5 -5 -5 -5 -5 -5 -5 -5 -5 -6 -6

GFSNGP_850_dewp_075.txt.gz
Dewpoint
-0 -1 1 2 2 4 5 5 4 3 1 -1 -4 -3 -2 -1 0 2 3 3 3 3 2 1 0 0 0 0 0 1 1 1 1 1 0 1 1 2 2 2 1 1 1 0
-1 -0 1 2 1 2 4 4 5 3 1 -2 -4 -3 -3 -1 1 2 2 2 2 2 2 1 1 0 -0 0 0 1 1 1 0 0 0 1 1 2 2 1 0 -0 -0 -1
0 1 -0 1 1 1 1 1 2 3 1 -3 -2 -3 -3 -2 -1 -0 -0 0 1 2 2 1 0 0 -0 -0 0 1 1 0 0 -0 0 1 1 1 0 -0 -0 -1 -1 -1
0 0 2 -1 -3 -1 -1 -1 0 -0 -1 -2 -2 -3 -4 -4 -3 -3 -3 -1 1 2 1 1 -0 -0 -0 -0 0 1 1 -0 -0 0 0 1 0 -0 -1 -1 -1 -1 -2 -3
2 2 -0 -2 -1 0 0 0 -2 -0 -1 -2 -2 -2 -1 -3 -3 -4 -3 -1 1 2 2 1 -1 -1 -1 -1 0 0 -0 -1 -0 0 0 -0 -1 -1 -1 -2 -2 -5 -20 -24
1 3 3 -3 -0 -2 -1 2 0 -1 -1 -1 -0 1 0 -1 -2 -0 -0 1 2 1 -0 -1 -1 -1 -1 -1 -0 -1 -1 -1 -0 -0 -1 -1 -1 -2 -2 -3 -12 -21 -25 -27
2 3 1 -3 -3 -1 3 1 2 0 -1 -1 1 -1 -2 -1 -1 -1 1 2 1 -0 -1 -1 -2 -2 -2 -1 -1 -1 -1 -0 -0 -1 -1 -2 -2 -2 -8 -18 -21 -25 -28 -29
3 4 3 -2 0 2 0 2 2 0 -0 -1 -1 -1 -1 -1 0 1 2 1 0 -0 -1 -2 -2 -2 -2 -1 -1 -2 -1 -1 -1 -1 -1 -2 -3 -14 -20 -22 -25 -28 -28 -28
1 1 -3 -2 0 -1 -0 2 2 2 1 -1 -1 -1 1 2 2 2 1 1 1 -1 -1 -1 -1 -1 -2 -1 -2 -2 -1 -1 -1 -1 -2 -3 -14 -19 -22 -24 -26 -27 -27 -27
-1 -2 -2 -3 -2 -0 1 2 2 2 2 2 2 2 2 3 3 2 1 1 1 0 -1 -1 -1 -1 -1 -2 -2 -1 -1 -2 -2 -2 -3 -13 -16 -20 -21 -23 -26 -28 -27 -28
-1 -2 -2 -1 -2 -3 0 2 2 1 1 1 2 2 3 3 2 2 1 1 1 1 -0 -1 -1 -1 -1 -1 -1 -1 -1 -1 -2 -2 -9 -15 -16 -19 -21 -23 -26 -29 -29 -29
-0 -2 -2 -3 -2 -2 -2 1 2 1 1 2 2 1 1 1 2 2 3 1 1 1 1 -1 -1 -1 -1 -1 -1 -1 -1 -1 -2 -5 -14 -16 -17 -19 -22 -24 -27 -30 -31 -30
-2 -2 -2 0 0 0 -1 0 2 2 2 3 2 2 2 1 1 2 2 1 1 1 1 0 -1 -1 -1 -1 -1 -1 -1 -1 -2 -9 -16 -17 -17 -20 -22 -23 -26 -29 -30 -30
-1 -1 1 1 1 0 0 0 1 2 2 2 1 1 1 1 1 1 1 2 1 1 1 1 0 -1 -1 -1 -1 -1 -1 -2 -3 -11 -16 -17 -16 -18 -21 -22 -23 -24 -27 -30
-1 -1 -0 -0 1 2 2 2 2 2 1 1 1 1 1 1 1 1 2 2 2 2 1 2 2 1 -1 -1 -1 -1 -1 -2 -2 -8 -15 -17 -16 -16 -18 -20 -21 -23 -24 -28
-1 1 0 -0 0 1 1 1 1 1 1 1 1 1 0 0 1 1 1 1 2 2 2 2 1 2 0 -1 -1 -1 -1 -2 -2 -4 -11 -16 -17 -17 -16 -17 -20 -21 -23 -24
0 1 0 1 1 1 1 1 1 0 -0 -0 -1 -1 -0 0 0 0 -0 0 0 1 1 1 1 2 1 0 -1 -1 -1 -1 -1 -2 -6 -11 -15 -17 -17 -16 -16 -19 -21 -22
0 0 0 0 0 0 0 -0 -0 -1 -1 -0 0 0 0 -0 -0 -0 -0 0 -0 0 1 1 1 1 1 1 0 -0 -1 -1 -1 -1 -3 -6 -11 -15 -16 -17 -17 -16 -18 -21
0 0 0 -0 -0 -0 -1 -1 -1 -0 0 1 0 1 -0 -0 -0 -1 -0 0 0 0 0 0 0 0 0 1 1 0 -0 -0 -1 -1 -1 -3 -5 -10 -13 -15 -16 -17 -16 -18
-0 -1 -1 -0 -0 0 0 0 0 0 0 0 0 0 -0 -1 -1 -0 -0 0 0 0 0 -0 -0 -0 -0 -0 0 0 0 -0 -0 -0 -1 -1 -2 -3 -7 -9 -12 -15 -16 -16
-0 -0 -0 0 0 0 0 0 -0 -0 -1 -3 -2 -1 -0 -0 -0 -1 -2 -1 -1 -1 -1 -1 -1 -1 -1 -1 0 0 -0 -1 -1 -1 -1 -1 -1 -2 -2 -2 -2 -3 -4 -7
-1 -1 -1 -2 -4 -5 -8 -10 -12 -13 -10 -8 -9 -7 -6 -5 -3 -1 -1 -1 -1 -2 -2 -2 -1 -2 -1 -0 -0 -0 -1 -1 -1 -1 -1 -1 -2 -2 -2 -2 -2 -3 -3 -3
-10 -12 -13 -14 -14 -15 -16 -17 -22 -22 -20 -18 -16 -13 -11 -9 -8 -6 -4 -4 -3 -2 -1 -1 -1 -1 -1 -1 -1 -1 -2 -2 -2 -2 -2 -3 -2 -3 -3 -3 -3 -3 -3 -3
-10 -10 -11 -13 -17 -19 -22 -24 -24 -24 -22 -21 -21 -21 -21 -19 -15 -11 -8 -7 -6 -5 -5 -5 -5 -3 -2 -2 -2 -2 -3 -3 -3 -3 -3 -3 -3 -3 -4 -3 -4 -4 -4 -4
-8 -9 -9 -9 -13 -20 -24 -24 -22 -21 -20 -19 -18 -18 -17 -17 -17 -17 -16 -13 -11 -10 -8 -7 -6 -5 -5 -5 -3 -3 -3 -3 -4 -4 -4 -4 -4 -4 -4 -4 -4 -4 -4 -4
-8 -8 -7 -7 -8 -18 -24 -24 -23 -22 -20 -19 -18 -17 -16 -16 -16 -16 -16 -15 -15 -14 -12 -11 -9 -9 -7 -6 -6 -6 -5 -4 -4 -4 -4 -4 -4 -5 -5 -5 -4 -4 -4 -4
-7 -7 -7 -7 -6 -13 -23 -24 -24 -23 -22 -21 -19 -18 -18 -17 -16 -16 -15 -15 -15 -15 -15 -14 -12 -11 -10 -9 -8 -8 -7 -7 -6 -5 -4 -4 -5 -5 -5 -5 -5 -5 -5 -5

GFSNGP_850_dewp_078.txt.gz
Dewpoint
1 -1 2 3 4 4 5 5 6 2 1 -1 -2 -3 -4 -2 1 3 3 3 3 3 2 2 2 1 1 0 0 0 0 1 1 1 1 0 0 1 2 2 2 1 1 0
0 -0 1 2 2 2 4 4 4 4 4 0 -2 -3 -4 -3 -0 2 3 3 2 2 2 2 2 1 0 0 0 0 0 1 1 1 0 0 1 1 2 2 1 0 -0 -1
1 0 -0 1 1 1 1 2 3 5 3 -1 -1 -2 -3 -3 -1 1 1 1 1 1 2 2 2 1 1 0 -0 0 1 1 1 0 -0 0 1 1 1 1 -0 -1 -1 -1
1 -0 2 -2 -4 -2 -0 -1 1 1 1 -1 -1 -2 -3 -4 -3 -1 -1 -1 -0 1 1 2 2 1 0 -0 -0 0 1 1 0 -0 -0 0 1 1 0 -0 -1 -1 -2 -3
4 2 -0 -1 -2 -0 0 -0 -2 -1 -1 -2 -2 -2 -2 -3 -4 -4 -2 -2 -2 -1 1 2 1 0 -0 -0 -0 0 0 0 0 -0 -0 0 0 -0 -1 -1 -2 -3 -13 -24
2 4 3 -4 -1 -2 -2 2 -1 -0 -2 -2 -1 0 -1 -3 -3 -4 -3 -3 -1 1 2 2 1 -0 -1 -1 -1 -1 -0 -0 -0 -0 -0 -0 -1 -1 -1 -2 -4 -21 -24 -28
3 4 0 -2 -4 -1 3 -0 2 1 0 -1 -0 -2 -2 -2 -1 -2 -1 -1 -1 2 1 -0 -1 -1 -1 -1 -1 -1 -1 -1 -1 -1 -1 -1 -1 -2 -2 -6 -18 -23 -26 -28
4 5 3 -3 -0 1 -1 1 2 2 0 -0 -1 -1 -1 -1 0 -0 -1 -0 2 1 -0 -1 -1 -1 -2 -2 -1 -1 -1 -1 -1 -1 -2 -1 -2 -2 -8 -17 -21 -25 -27 -28
1 1 -3 -2 -0 -1 -0 0 2 2 0 -1 -1 -0 -1 -0 0 1 1 1 1 0 -1 -1 -1 -1 -1 -2 -1 -1 -2 -2 -2 -2 -2 -2 -2 -7 -18 -20 -24 -27 -27 -27
-0 -2 -2 -3 -3 -3 -1 1 2 2 2 1 1 2 2 2 2 2 2 1 0 0 -0 -1 -1 -1 -1 -2 -1 -2 -2 -2 -2 -2 -1 -2 -4 -16 -20 -22 -24 -27 -28 -28
-1 -2 -2 -2 -2 -3 -3 1 2 2 2 2 2 3 3 3 2 2 2 1 1 1 1 -0 -1 -1 -1 -1 -1 -2 -1 -2 -2 -2 -2 -2 -12 -17 -19 -21 -23 -27 -29 -29
-1 -3 -3 -3 -3 -2 -2 -1 1 1 1 1 1 1 1 1 2 3 3 4 2 1 1 1 -0 -1 -1 -1 -1 -1 -0 -1 -1 -1 -2 -5 -14 -16 -19 -20 -23 -26 -30 -31
-3 -3 -3 -2 -1 -0 -1 -1 1 1 2 2 2 2 2 2 1 1 2 2 2 2 1 1 1 -0 -1 -1 -1 -1 -1 -1 -1 -2 -2 -7 -14 -16 -18 -20 -23 -25 -29 -31
-1 -1 -1 -1 0 0 -0 -0 2 2 2 2 2 1 1 1 1 1 1 2 2 1 1 1 1 1 -0 -1 -1 -1 -1 -1 -1 -2 -2 -8 -15 -16 -16 -19 -21 -22 -24 -26
-1 -1 0 -0 1 1 1 1 2 2 2 1 1 1 1 1 1 1 1 1 2 2 2 1 1 2 1 0 -1 -1 -1 -1 -1 -1 -2 -7 -15 -16 -16 -16 -19 -20 -21 -22
-0 -0 0 0 1 1 1 2 1 1 1 1 1 0 0 0 0 0 0 1 1 1 2 2 2 2 1 1 0 -1 -1 -1 -1 -2 -2 -4 -11 -16 -17 -16 -16 -17 -19 -20
1 0 0 1 0 1 1 1 1 1 0 -0 -1 -1 -1 -1 -1 -0 0 0 0 0 1 1 1 1 2 2 1 1 -1 -1 -1 -1 -2 -2 -3 -9 -15 -17 -17 -16 -16 -17
0 -0 -0 0 0 1 1 0 0 -0 -1 -1 -1 -0 -0 -0 -0 -0 -0 -0 -0 -0 -0 -0 1 1 1 1 1 1 0 -1 -1 -1 -1 -1 -1 -2 -7 -12 -15 -17 -17 -17
0 0 0 0 0 0 0 -0 -0 -1 -0 0 1 1 1 0 -0 -0 -1 -1 -0 0 0 0 -0 0 1 1 1 1 1 1 0 -0 -0 -1 -1 -1 -2 -5 -10 -13 -15 -16
-0 -0 -0 -0 -0 -0 -0 0 1 0 0 0 0 1 0 0 0 -0 -1 -1 -0 -0 0 -0 -0 -0 0 0 0 0 0 0 0 -0 -0 -0 -1 -1 -1 -2 -2 -3 -5 -7
-0 -0 -0 0 0 0 0 0 -0 -1 -1 -3 -4 -5 -5 -4 -2 -1 -0 -1 -1 -2 -2 -1 -1 -1 -1 -1 -1 -1 -0 0 -0 -1 -1 -1 -1 -1 -1 -1 -1 -2 -2 -2
-0 -0 -1 -1 -1 -1 -3 -4 -10 -13 -14 -14 -13 -12 -11 -10 -8 -6 -5 -2 -2 -2 -1 -1 -1 -1 -1 -1 -1 -1 -1 -1 -1 -1 -2 -2 -2 -2 -2 -2 -2 -2 -2 -2
-6 -9 -11 -12 -12 -14 -15 -18 -23 -24 -23 -22 -21 -20 -19 -19 -17 -12 -8 -7 -6 -5 -5 -5 -4 -2 -2 -2 -2 -2 -2 -2 -2 -2 -2 -3 -3 -3 -3 -3 -3 -3 -3 -3
-10 -9 -10 -11 -14 -17 -21 -23 -24 -23 -21 -20 -19 -19 -19 -19 -19 -17 -14 -14 -12 -11 -10 -8 -6 -5 -5 -5 -3 -2 -2 -3 -3 -3 -3 -3 -3 -3 -3 -3 -3 -4 -4 -4
-6 -8 -10 -8 -9 -13 -20 -25 -24 -22 -21 -20 -20 -19 -18 -17 -17 -17 -16 -16 -16 -15 -14 -12 -11 -10 -9 -7 -6 -6 -5 -4 -4 -4 -4 -4 -4 -4 -4 -4 -4 -4 -4 -4
-10 -8 -8 -7 -6 -7 -13 -22 -25 -24 -23 -21 -21 -19 -18 -18 -18 -17 -16 -16 -16 -15 -15 -15 -14 -14 -13 -11 -10 -9 -8 -7 -6 -6 -5 -4 -4 -4 -4 -4 -4 -5 -5 -5
-9 -8 -7 -6 -6 -6 -7 -15 -23 -24 -24 -23 -22 -20 -19 -18 -18 -17 -17 -16 -16 -15 -15 -15 -15 -15 -15 -14 -13 -12 -11 -10 -9 -7 -7 -7 -6 -5 -5 -5 -5 -5 -5 -5

GFSNGP_850_dewp_081.txt.gz
Dewpoint
2 -0 3 3 3 4 5 4 5 2 2 -0 -2 -2 -3 -3 -2 2 2 3 3 3 3 3 2 2 2 1 1 0 1 1 1 1 1 1 0 0 0 1 2 2 1 1
1 0 0 2 2 3 3 3 3 3 3 -0 -1 -1 -0 0 -1 -0 2 3 3 3 3 3 2 2 2 1 0 0 0 0 0 1 1 0 0 0 1 2 2 1 0 -0
4 0 -0 2 2 2 2 2 3 5 2 -0 1 1 1 1 1 -1 -2 1 3 3 2 2 2 2 2 1 0 0 0 0 1 1 0 0 -0 1 1 1 1 0 -0 -1
4 0 3 -2 -4 -1 1 -0 1 1 1 -0 0 0 0 -1 -3 -4 -2 -0 2 2 1 2 2 2 1 1 0 0 -0 0 1 1 0 -0 -0 1 1 1 -0 -1 -1 -2
4 2 -0 -1 -3 -2 -1 -2 -2 -1 -1 -1 -1 -1 -1 -2 -2 -3 -3 -1 1 0 0 1 1 2 1 1 0 -0 -0 0 0 1 0 -0 -0 0 -0 -0 -1 -2 -3 -13
2 3 3 -3 -2 -2 -2 2 -2 -2 -2 -2 -2 1 -1 -2 -2 -3 -4 -3 -2 -0 -2 0 2 2 1 0 0 -0 -0 -0 0 -0 -0 -1 -0 -0 -1 -1 -2 -6 -20 -26
3 3 1 -3 -2 -1 3 -1 0 2 2 0 -0 -1 -2 -2 -2 -2 -3 -3 -2 -2 -0 1 2 1 0 -0 -1 -1 -1 -0 -0 -1 -1 -1 -1 -1 -1 -2 -5 -20 -23 -25
4 4 4 -3 -1 0 -1 0 1 2 2 -0 -0 -1 -1 -1 0 -1 -2 -1 -0 0 2 1 -0 -1 -1 -1 -1 -1 -1 -1 -1 -1 -1 -2 -1 -1 -2 -2 -13 -19 -23 -26
1 1 -3 -2 -2 -2 -1 -0 1 2 2 -1 -1 -0 -0 -0 -0 0 0 0 1 2 0 -0 -1 -1 -1 -1 -1 -1 -1 -1 -1 -2 -2 -2 -1 -2 -2 -11 -18 -21 -25 -26
0 -2 -2 -3 -3 -3 -2 -1 1 2 2 -0 -1 -0 0 2 1 2 1 1 1 0 0 0 -1 -1 -1 -1 -2 -1 -1 -2 -2 -2 -2 -2 -2 -2 -7 -17 -20 -24 -26 -26
-1 -3 -3 -2 -3 -3 -3 -3 1 2 2 2 3 3 2 2 2 2 2 2 1 1 1 1 0 -1 -1 -1 -1 -1 -1 -2 -2 -2 -2 -2 -2 -3 -16 -19 -21 -22 -24 -26
-0 -3 -3 -4 -4 -3 -2 -2 -0 2 1 1 1 1 1 1 2 3 3 3 3 2 1 1 1 0 -1 -1 -1 -1 -1 -1 -1 -2 -2 -1 -2 -7 -16 -19 -20 -21 -23 -27
-2 -2 -2 -3 -1 -1 -1 -2 0 1 1 2 2 2 2 1 2 1 2 2 2 3 3 2 1 1 0 -1 -1 -1 -1 -1 -1 -2 -1 -2 -2 -10 -15 -16 -19 -21 -23 -26
-2 -2 -0 -2 -0 0 0 -1 1 1 2 2 2 1 1 1 1 1 1 1 2 2 1 1 1 1 1 -0 -1 -1 -1 -1 -1 -1 -1 -2 -2 -8 -14 -15 -17 -19 -22 -23
-1 -1 0 0 0 1 1 1 2 2 2 1 1 1 1 0 0 1 1 1 1 2 2 2 1 1 1 1 1 -0 -1 -1 -1 -1 -1 -2 -2 -6 -13 -16 -16 -17 -20 -21
-1 0 0 0 1 1 1 1 1 1 1 1 1 0 0 -0 -0 -0 0 0 0 1 1 2 2 2 1 1 1 1 0 -1 -1 -1 -1 -1 -2 -3 -9 -16 -17 -17 -16 -18
1 1 1 0 0 1 1 1 1 1 1 0 -0 -1 -1 -1 -1 -1 -1 -1 -0 0 0 0 1 1 1 1 2 2 1 0 -1 -1 -1 -1 -2 -2 -3 -9 -14 -16 -17 -17
-4 0 0 0 0 0 1 1 0 0 -0 -1 -1 -1 -0 -1 -1 -1 -0 -0 -0 -0 -0 0 0 -0 1 1 1 1 1 1 -0 -0 -1 -0 -1 -1 -1 -2 -2 -7 -12 -15
0 0 0 0 0 0 0 0 -0 -0 -0 0 0 0 1 1 1 0 -0 -0 -1 -0 -0 0 0 0 -0 0 1 1 1 1 1 0 -0 -0 -0 -0 -1 -1 -1 -1 -3 -6
-0 -0 -0 -0 -0 -0 -0 -0 0 1 0 0 -1 -1 -1 -1 -0 -0 -0 -1 -1 -1 -1 -0 -0 -0 -0 0 0 1 0 0 0 0 -0 -0 -0 -1 -1 -1 -1 -1 -1 -1
-0 -0 -0 -0 0 0 -0 -0 -0 -1 -3 -6 -8 -10 -11 -11 -10 -8 -6 -2 -2 -2 -2 -1 -1 -1 -1 -1 -1 -0 -0 -0 -1 -1 -1 -1 -1 -1 -1 -1 -2 -2 -2 -2
-1 -1 -1 -1 -1 -1 -3 -6 -13 -17 -18 -18 -18 -19 -18 -18 -16 -13 -9 -6 -6 -5 -5 -4 -3 -2 -2 -1 -1 -1 -1 -1 -1 -1 -1 -2 -2 -2 -2 -2 -2 -2 -2 -2
-2 -3 -3 -4 -8 -12 -16 -19 -23 -24 -24 -23 -21 -21 -20 -20 -19 -19 -15 -14 -14 -12 -10 -9 -7 -6 -5 -4 -3 -2 -2 -2 -2 -2 -3 -3 -3 -3 -3 -3 -3 -3 -3 -3
-6 -10 -11 -10 -11 -13 -17 -23 -25 -24 -22 -21 -21 -20 -19 -18 -18 -17 -17 -16 -16 -16 -15 -13 -12 -11 -10 -8 -6 -6 -5 -3 -3 -3 -3 -4 -4 -4 -4 -4 -4 -4 -4 -4
-2 -8 -9 -7 -6 -6 -9 -17 -23 -24 -23 -22 -21 -20 -19 -18 -19 -18 -17 -17 -16 -16 -16 -15 -15 -14 -13 -13 -12 -11 -9 -8 -6 -5 -4 -4 -4 -4 -4 -4 -4 -4 -4 -4
-9 -10 -8 -7 -7 -7 -6 -7 -14 -22 -24 -23 -22 -21 -20 -19 -19 -19 -18 -17 -17 -17 -16 -16 -16 -16 -15 -15 -14 -13 -13 -12 -10 -9 -9 -8 -7 -6 -6 -5 -5 -5 -5 -5
-5 -7 -9 -8 -7 -7 -6 -6 -7 -16 -23 -24 -23 -23 -22 -21 -20 -20 -19 -19 -18 -17 -16 -16 -16 -15 -15 -15 -15 -14 -14 -14 -14 -14 -14 -12 -10 -9 -8 -7 -7 -6 -6 -6

GFSNGP_850_dewp_084.txt.gz
Dewpoint
2 1 2 3 3 3 5 5 5 2 1 -1 -3 -4 -4 -3 -2 -1 2 2 3 3 3 3 3 3 2 2 1 1 1 1 1 1 1 1 1 0 0 0 0 1 1 1
6 4 2 3 2 2 2 3 2 2 2 -2 -3 -3 -2 -2 -2 -1 -0 2 3 3 3 3 3 2 2 2 1 1 1 1 1 0 0 0 0 0 0 0 1 2 1 1
5 3 4 5 2 1 1 1 2 4 1 -2 -1 -1 -1 -1 -1 -0 0 -0 2 3 2 3 3 2 2 2 1 1 1 1 0 0 0 0 0 0 -0 1 1 1 0 -0
4 1 5 -2 -3 -1 -0 -1 -1 0 -1 -2 -2 -2 -1 -1 -1 -1 -1 -1 1 2 2 3 3 2 2 2 2 1 1 0 0 0 1 1 0 -0 0 0 0 0 -0 -1
4 3 -0 -1 -2 -2 -1 -2 -3 -2 -2 -2 -2 -1 -1 -1 -1 -0 -1 -1 -0 1 1 2 2 2 2 2 2 1 0 0 -0 0 0 0 0 -0 -0 -0 -1 -0 -1 -2
4 4 2 -4 -2 -3 -3 0 -2 -2 -2 -1 -0 2 0 -2 -2 -2 -2 -2 -3 -0 2 2 2 2 2 2 1 1 0 0 -0 0 0 0 -0 -0 -1 -1 -1 -1 -3 -10
4 4 1 -3 -2 -2 -0 -1 0 2 2 2 1 -1 -1 -1 -1 -2 -2 -2 -3 -0 -0 -0 0 1 1 2 1 1 0 -0 -0 -0 -0 -0 -1 -1 -1 -1 -1 -2 -10 -21
3 4 3 -3 -1 -1 -3 0 1 2 2 1 0 -0 -1 -1 -0 -1 -2 -2 -3 -1 -1 -2 1 1 1 0 -0 -0 -0 -1 -1 -0 -1 -1 -1 -1 -2 -2 -2 -8 -20 -23
1 -1 -2 -2 -3 -3 -1 -0 1 2 2 -0 -1 -1 -0 0 0 1 -0 -1 -1 -1 0 1 1 -0 -1 -1 -1 -1 -1 -1 -1 -1 -1 -1 -2 -2 -2 -2 -2 -13 -20 -24
0 -3 -2 -2 -3 -2 -2 -1 -0 1 2 1 -0 -1 -0 1 1 0 0 0 1 1 1 0 -0 -1 -1 -1 -1 -1 -1 -1 -1 -1 -1 -2 -2 -3 -2 -2 -3 -17 -21 -24
-0 -2 -3 -3 -2 -3 -3 -3 -3 0 2 2 3 3 2 2 2 2 1 1 1 0 -0 0 0 0 -1 -1 -1 -1 -1 -1 -1 -2 -1 -2 -2 -2 -2 -2 -11 -18 -22 -24
0 -2 -2 -3 -2 -3 -3 -3 -3 1 1 1 1 2 1 2 2 2 2 2 3 4 3 1 2 2 0 -1 -1 -1 -1 -1 -1 -1 -1 -2 -2 -2 -2 -6 -16 -19 -21 -23
-4 -2 -1 -1 -1 -1 -1 -1 -2 1 1 1 2 2 2 2 2 2 2 2 2 2 2 2 1 0 2 0 -1 -1 -0 -0 -1 -1 -1 -2 -2 -2 -2 -9 -17 -19 -21 -22
-6 -2 0 0 0 1 1 -1 0 1 1 2 2 2 1 1 1 1 1 1 1 1 2 2 1 1 1 1 -0 -1 -1 -1 -0 -0 -0 -1 -1 -2 -2 -9 -16 -17 -19 -21
-8 -7 0 0 0 1 1 0 1 1 2 2 1 1 1 0 0 0 0 0 1 1 2 2 1 1 1 1 1 0 -0 -1 -1 -1 -1 -1 -1 -1 -2 -5 -12 -15 -16 -17
-1 -0 1 1 1 1 1 1 1 1 1 1 1 1 0 -0 -1 -1 -1 -1 -0 0 0 1 2 2 1 1 1 1 1 0 -0 -1 -1 -1 -1 -1 -2 -2 -6 -11 -15 -16
-4 -3 1 1 1 1 1 1 1 1 1 1 0 -0 -1 -1 -1 -1 -1 -1 -0 -0 -1 0 0 0 1 1 1 2 2 1 0 0 -1 -0 -0 -1 -1 -2 -2 -6 -12 -16
-7 -4 -0 0 0 1 1 1 1 0 0 -0 -0 -1 -1 -0 -0 -1 -1 -1 -0 -0 -0 -0 -0 0 -0 0 1 1 1 1 1 1 0 -0 -0 -0 -0 -0 -1 -1 -2 -4
0 1 0 1 1 1 0 0 0 -0 -0 -0 0 0 0 1 0 0 0 -0 -1 -1 -0 -0 0 0 0 0 0 1 1 1 1 0 0 0 -0 -1 -1 -0 -0 -1 -1 -1
0 0 -0 0 0 0 0 -0 -0 0 1 0 -1 -2 -4 -5 -5 -5 -3 -2 -2 -1 -1 -1 -1 -1 -0 -0 -0 0 0 0 -0 0 -0 -0 -0 -1 -1 -1 -1 -1 -1 -1
-1 -0 -0 -0 -0 -0 -0 -0 -0 -1 -2 -5 -9 -12 -14 -15 -15 -14 -10 -7 -5 -4 -3 -3 -2 -2 -1 -1 -1 -1 -1 -1 -1 -1 -1 -1 -1 -1 -1 -1 -1 -2 -2 -2
-1 -1 -1 -1 -1 -2 -4 -7 -14 -17 -18 -19 -20 -21 -21 -21 -21 -19 -16 -12 -12 -12 -10 -8 -7 -6 -5 -3 -2 -2 -2 -2 -2 -2 -2 -2 -2 -2 -2 -2 -3 -3 -3 -3
-2 -3 -3 -5 -6 -9 -14 -20 -23 -23 -22 -22 -21 -21 -20 -20 -19 -18 -17 -17 -17 -16 -15 -15 -13 -12 -11 -7 -5 -5 -3 -3 -3 -3 -3 -3 -3 -3 -4 -4 -4 -4 -4 -4
-2 -9 -11 -11 -11 -12 -15 -21 -24 -24 -23 -22 -22 -21 -19 -19 -19 -19 -19 -18 -17 -17 -17 -16 -15 -15 -15 -14 -12 -11 -9 -7 -6 -5 -4 -4 -4 -4 -4 -4 -4 -4 -4 -4
-2 -7 -9 -9 -8 -7 -7 -9 -14 -21 -23 -23 -22 -22 -21 -20 -20 -20 -19 -19 -18 -18 -17 -16 -16 -16 -16 -16 -15 -14 -14 -13 -12 -11 -10 -9 -8 -6 -5 -4 -4 -4 -4 -4
-1 -2 -8 -9 -8 -8 -7 -7 -7 -9 -17 -23 -24 -23 -23 -22 -21 -20 -20 -19 -19 -18 -17 -17 -17 -16 -16 -16 -15 -15 -15 -15 -15 -14 -14 -14 -13 -12 -10 -9 -8 -7 -6 -5
-1 -1 -4 -6 -8 -7 -6 -6 -6 -6 -7 -16 -23 -24 -23 -22 -21 -20 -19 -19 -19 -18 -18 -17 -17 -17 -16 -16 -15 -15 -15 -14 -14 -14 -14 -14 -14 -14 -14 -13 -12 -11 -10 -10

GFSNGP_850_dewp_087.txt.gz
Dewpoint
2 0 1 3 3 2 5 5 6 2 1 -2 -3 -4 -4 -4 -4 -3 -2 0 2 3 3 3 3 3 2 2 1 1 1 1 1 1 1 1 1 0 0 0 -0 -0 0 0
6 5 2 3 1 2 2 2 3 3 2 -2 -3 -3 -3 -4 -4 -3 -2 -1 1 3 3 3 3 2 2 2 1 1 1 1 1 1 1 1 0 0 0 0 0 -0 0 1
6 5 5 6 4 2 1 1 1 4 1 -2 -2 -3 -3 -3 -2 -2 -2 -1 -1 2 3 3 3 2 2 2 2 2 1 1 1 1 1 0 0 0 0 0 0 1 1 1
5 5 6 -2 -2 -0 0 -1 -1 -1 -2 -2 -3 -3 -3 -3 -2 -2 -2 -2 -0 -0 2 3 3 3 2 2 2 2 2 1 1 1 0 0 0 0 0 0 0 0 1 0
5 3 -2 -3 -3 -2 -1 -2 -4 -3 -4 -4 -4 -3 -2 -1 -1 -1 -2 -2 -1 -1 1 3 3 3 2 2 2 2 2 1 1 0 0 0 0 0 0 0 -0 -0 -0 -1
6 6 1 -3 -3 -4 -4 -1 -3 -3 -2 -0 0 2 0 0 -1 -2 -1 -1 -1 0 1 3 3 3 2 2 2 2 2 1 1 0 0 -0 0 0 0 -0 -0 -1 -1 -1
4 3 -0 -4 -2 -2 -1 -0 1 1 2 2 2 -0 0 0 0 -1 -2 -1 -1 -1 3 3 3 2 2 2 1 2 2 1 0 0 -0 -0 -0 -0 -1 -1 -1 -1 -2 -4
4 4 2 -3 -1 -1 -2 -0 -1 1 2 2 1 0 -0 1 1 1 -1 -2 -2 -2 2 2 2 1 1 0 1 1 1 0 0 -0 -0 -1 -0 -1 -1 -1 -1 -2 -2 -6
1 -0 -2 -3 -3 -2 -3 -3 -1 2 3 2 0 0 1 1 0 1 0 -1 -2 -1 0 0 -0 -1 0 1 1 -0 -0 -0 -0 -1 -1 -1 -1 -1 -1 -1 -2 -2 -2 -13
1 -3 -3 -2 -3 -3 -1 -1 -0 1 2 2 1 1 1 1 1 0 0 1 0 -0 -0 0 1 1 1 -0 -1 -1 -1 -1 -1 -1 -1 -1 -1 -1 -1 -2 -2 -2 -3 -16
2 -1 -2 -3 -2 -1 -2 -3 -2 -1 1 3 3 3 2 2 2 2 1 1 1 1 1 0 -0 -0 -0 -1 -1 -1 -1 -1 -1 -1 -1 -1 -1 -1 -1 -2 -2 -2 -3 -17
-4 -0 0 -2 -1 -1 -1 -1 -1 -1 2 2 2 2 2 2 2 2 2 2 1 1 1 1 1 1 2 2 0 -1 -1 -1 -1 -1 -1 -1 -1 -1 -2 -3 -2 -2 -8 -17
-8 -5 -3 -1 -0 1 1 1 -1 0 2 1 1 2 2 2 1 1 1 2 2 2 2 2 3 4 3 0 0 1 -1 -1 1 1 0 -1 -1 -1 -2 -2 -2 -3 -12 -18
-4 -4 -5 -0 1 0 1 1 0 1 1 1 2 2 1 1 1 1 1 1 1 1 1 1 2 2 2 2 3 3 1 -0 -1 -1 0 1 -0 -1 -1 -1 -2 -5 -16 -19
-6 -4 -2 -4 1 1 1 1 1 1 1 2 2 1 1 1 0 0 0 0 0 0 1 1 2 1 1 1 1 0 0 -0 -1 -1 -1 -1 -0 -0 -1 -1 -2 -2 -10 -16
-6 -2 -0 1 2 1 1 1 1 1 1 1 1 1 0 0 -1 -1 -1 -2 -1 -1 -1 -0 0 1 1 1 1 1 1 0 0 0 -0 -1 -1 -1 -1 -1 -1 -1 -3 -10
-5 -4 -5 -3 1 1 1 1 1 1 1 1 0 0 -0 -1 -1 -1 -1 -1 -1 -1 -1 -0 -0 -0 0 1 1 1 1 1 1 1 1 0 -0 -0 -1 -1 -1 -1 -2 -3
-4 -3 -2 -1 1 1 1 1 1 1 0 0 -0 -0 -1 -1 -0 -0 -0 -0 -1 -1 -1 -0 -0 -0 -0 -0 0 0 1 1 1 1 1 0 0 -0 -0 -1 -1 -1 -1 -1
-0 0 1 1 1 1 1 0 0 0 -0 -0 -0 0 0 0 0 0 0 -0 -0 -1 -1 -1 -1 -1 -0 -0 -0 -0 0 0 0 0 0 0 -0 -0 -1 -1 -1 -1 -1 -1
-0 -0 0 0 0 0 0 1 1 -0 0 0 -0 -1 -3 -5 -7 -9 -10 -8 -6 -5 -4 -3 -2 -1 -1 -1 -1 -1 -0 -1 -1 -0 -1 -1 -1 -1 -1 -1 -1 -1 -2 -2
-1 -1 -1 -1 -0 -0 -0 -0 -0 -0 -1 -1 -5 -10 -14 -16 -17 -18 -15 -10 -11 -10 -10 -8 -7 -5 -4 -3 -2 -2 -2 -2 -2 -2 -2 -2 -2 -2 -2 -2 -2 -2 -2 -2
-2 -2 -2 -2 -1 -1 -3 -7 -12 -14 -17 -19 -20 -21 -21 -21 -21 -20 -18 -16 -17 -18 -17 -16 -15 -14 -12 -10 -6 -5 -3 -2 -3 -3 -3 -3 -3 -3 -3 -3 -3 -3 -3 -3
-2 -3 -4 -6 -8 -10 -14 -19 -23 -24 -23 -23 -22 -22 -21 -20 -20 -19 -18 -19 -18 -18 -17 -17 -17 -16 -16 -15 -13 -12 -8 -6 -5 -4 -3 -4 -4 -4 -4 -4 -4 -4 -4 -4
-2 -2 -6 -11 -10 -10 -10 -14 -18 -22 -23 -23 -22 -22 -21 -21 -20 -20 -20 -19 -19 -19 -18 -18 -17 -17 -17 -17 -16 -15 -14 -13 -12 -11 -9 -8 -7 -5 -4 -4 -4 -5 -5 -5
-2 -3 -8 -9 -8 -8 -7 -7 -6 -10 -16 -22 -23 -23 -22 -22 -21 -21 -21 -20 -20 -19 -18 -18 -18 -18 -17 -17 -17 -16 -16 -15 -15 -15 -14 -14 -14 -13 -12 -11 -10 -9 -7 -6
-1 -1 -1 -2 -6 -9 -8 -8 -7 -6 -6 -9 -17 -23 -23 -23 -22 -22 -21 -20 -20 -19 -19 -18 -18 -18 -17 -17 -17 -17 -16 -16 -15 -15 -14 -14 -14 -14 -14 -14 -14 -14 -13 -12
-9 -4 -2 -1 -2 -5 -7 -8 -7 -6 -6 -6 -9 -17 -22 -23 -23 -22 -20 -18 -17 -16 -16 -16 -16 -16 -15 -15 -15 -15 -16 -16 -16 -16 -15 -15 -15 -14 -14 -14 -14 -14 -13 -13

GFSNGP_850_dewp_090.txt.gz
Dewpoint
3 1 4 5 4 4 6 6 5 3 3 -0 -2 -3 -4 -4 -3 -3 -3 -2 0 2 3 3 3 3 3 3 2 2 1 1 0 1 0 1 1 1 1 0 0 0 -0 -0
6 5 5 5 3 3 3 4 4 3 3 -1 -1 -1 -2 -2 -3 -3 -2 -2 -2 1 3 3 3 3 3 2 2 2 1 1 1 1 1 1 1 1 0 0 0 0 -0 -0
6 5 5 6 5 3 2 1 2 5 2 -1 -1 -2 -2 -3 -3 -3 -2 -2 -2 -1 1 3 3 3 2 2 2 2 1 1 1 1 1 1 1 1 0 0 0 0 0 0
6 5 5 1 -2 1 1 1 0 0 -0 -1 -2 -2 -3 -3 -3 -3 -3 -2 -2 -1 -0 1 3 3 2 2 2 2 1 2 1 1 1 1 1 0 0 0 0 0 0 1
6 5 1 -2 -2 0 2 1 -1 -1 -2 -3 -4 -3 -3 -1 -1 -1 -1 -1 -2 -2 -1 0 2 3 3 2 2 2 1 2 1 1 1 1 1 0 0 0 0 0 -0 -0
5 5 5 -1 -3 -4 -4 0 -1 -3 -2 0 0 2 1 0 0 -0 -1 -1 -1 -1 -1 -1 2 3 3 2 2 1 1 1 2 1 1 1 0 -0 0 0 0 -0 -1 -1
4 5 2 -2 -3 -3 -0 3 1 1 2 2 2 1 0 -1 -1 -1 -1 -2 -1 -1 -1 1 3 3 3 3 2 2 2 2 1 1 1 0 -0 -0 -0 -0 -0 -0 -1 -1
3 4 4 -2 -2 -1 -0 -1 -1 1 2 2 2 0 -0 0 0 1 -0 -1 -1 -1 1 3 3 3 3 2 2 2 2 1 1 1 0 -0 -0 -0 -0 -0 -1 -1 -1 -1
5 3 -2 -2 -2 -3 -2 -3 -1 2 3 3 1 0 0 1 0 0 0 -1 -1 1 2 3 3 3 2 2 2 1 1 1 0 -0 -0 -0 -1 -1 -1 -1 -1 -1 -2 -2
1 -1 -0 -1 -2 -1 -2 -2 -1 0 1 2 1 2 2 1 1 1 0 1 -0 -0 1 1 2 1 1 1 1 1 -0 -0 -1 -1 -1 -1 -1 -1 -1 -1 -1 -2 -2 -2
-0 -2 -1 -1 -1 -1 -0 -1 -2 -2 -2 2 3 3 2 2 1 1 1 1 1 1 1 1 1 1 1 -0 -0 -1 -1 -1 -1 -1 -1 -1 -1 -1 -1 -1 -1 -2 -2 -2
-4 -5 -2 -1 -3 -0 1 1 -0 -1 -0 1 2 3 2 2 2 2 1 1 1 1 1 1 0 0 0 1 1 2 1 0 -1 -0 -0 -1 -1 -1 -1 -1 -2 -3 -3 -2
-5 -4 -4 -5 -1 0 0 1 1 0 2 2 2 2 2 1 1 1 1 1 2 2 2 2 3 3 4 4 4 2 0 0 -1 -0 1 1 1 -0 -1 -1 -2 -3 -2 -2
-5 -8 -5 -5 -3 -5 0 1 1 1 2 2 2 2 1 1 1 1 1 1 1 1 1 1 1 1 1 2 2 2 3 3 2 1 -0 -1 0 1 -0 -1 -1 -1 -2 -2
-4 -7 -6 -2 -1 -1 1 1 1 1 1 1 1 1 1 1 0 0 -0 -1 -1 -1 -1 -1 0 1 1 1 1 0 0 0 0 -0 -1 -1 -1 -1 0 -0 -0 -1 -1 -2
-3 -4 -4 -3 -2 2 2 1 1 1 1 1 1 1 1 0 -0 -1 -2 -2 -1 -2 -1 -1 -1 -1 0 1 1 1 1 0 0 0 0 -0 0 -0 -0 0 -0 -0 -0 0
-2 -2 -4 -4 -3 1 1 1 1 1 1 1 1 0 -0 -1 -1 -1 -1 -1 -1 -1 -1 -1 -1 -1 -0 -0 0 0 1 1 1 1 0 0 0 0 -0 -0 -0 -0 -0 -0
-1 -3 -3 -1 0 1 1 1 1 1 1 0 0 -0 -0 -0 -0 -0 0 0 0 -1 -1 -1 -1 -1 -1 -0 -0 -0 -0 0 0 0 0 0 -0 -0 -1 -1 -1 -1 -1 -1
-1 -1 -0 0 1 1 1 0 0 0 0 0 0 -0 0 -0 -1 -1 -1 -1 -1 -2 -2 -2 -2 -2 -2 -2 -2 -1 -1 -1 -1 -1 -1 -1 -1 -1 -1 -1 -1 -1 -1 -1
-1 -1 -1 -0 0 -0 0 -0 0 0 0 -0 -0 -1 -2 -4 -6 -9 -12 -13 -12 -11 -9 -8 -7 -5 -5 -3 -2 -2 -1 -1 -1 -1 -2 -2 -2 -2 -2 -2 -2 -2 -2 -2
-1 -1 -1 -1 -1 -1 -1 -1 -1 -1 -1 -1 -4 -8 -14 -18 -20 -21 -19 -16 -14 -16 -17 -17 -16 -16 -14 -12 -10 -7 -4 -2 -2 -2 -3 -3 -3 -3 -3 -3 -3 -3 -3 -3
-2 -2 -2 -2 -1 -1 -2 -5 -13 -15 -16 -18 -20 -21 -22 -22 -21 -21 -19 -17 -18 -18 -18 -18 -17 -17 -17 -16 -15 -14 -13 -9 -7 -5 -3 -3 -4 -4 -4 -4 -4 -4 -4 -4
-2 -3 -4 -9 -11 -12 -15 -19 -22 -24 -24 -23 -23 -22 -21 -21 -20 -20 -19 -19 -19 -19 -19 -19 -18 -18 -18 -17 -17 -17 -16 -15 -15 -14 -12 -10 -7 -6 -5 -4 -5 -5 -5 -5
-2 -2 -2 -3 -7 -9 -8 -8 -9 -13 -17 -21 -24 -24 -23 -22 -21 -20 -20 -20 -20 -20 -20 -20 -19 -19 -18 -18 -18 -17 -17 -16 -16 -16 -15 -15 -15 -14 -14 -13 -11 -10 -9 -7
-2 -2 -2 -2 -5 -7 -8 -8 -7 -7 -7 -9 -14 -20 -23 -23 -23 -22 -22 -21 -21 -21 -20 -19 -19 -18 -18 -18 -18 -17 -18 -17 -17 -17 -16 -15 -15 -15 -15 -14 -14 -14 -14 -14
-3 -2 -2 -1 -1 -1 -2 -6 -8 -8 -7 -6 -6 -9 -15 -22 -23 -23 -22 -21 -20 -18 -16 -16 -15 -15 -15 -15 -15 -15 -14 -14 -14 -14 -15 -16 -16 -16 -15 -15 -14 -14 -14 -14
-12 -12 -11 -10 -9 -5 -3 -4 -6 -7 -7 -6 -5 -6 -8 -14 -21 -23 -23 -20 -17 -15 -16 -17 -18 -18 -19 -19 -19 -18 -16 -14 -13 -14 -14 -14 -14 -14 -14 -14 -14 -14 -14 -14